GFSNGP_925_temp_093.txt.gz
Temp
13 14 14 14 14 14 14 15 16 20 20 21 23 23 24 24 22 21 21 21 19 20 19 18 17 16 15 15 14 13 13 13 13 13 13 12 12 12 12 12 12 12 12 12
11 12 13 13 15 15 15 15 17 19 20 21 22 21 21 22 22 22 23 22 22 20 19 18 17 16 16 15 14 13 13 13 13 13 12 12 12 12 12 12 12 12 12 12
12 13 14 13 15 15 16 17 19 18 20 21 21 20 21 22 22 21 22 21 21 20 19 18 17 16 16 15 14 13 13 13 13 12 13 13 12 12 12 12 12 12 12 12
10 10 12 16 16 16 16 17 20 20 20 21 22 22 22 21 22 22 21 21 20 17 15 13 12 13 13 13 13 13 13 12 12 12 12 12 12 11 11 11 11 10 9 9
10 12 14 16 15 15 13 15 18 20 21 21 22 19 20 20 20 20 19 17 15 13 12 11 10 10 10 10 10 10 10 11 11 11 11 10 10 9 9 9 8 7 6 6
10 10 12 15 16 14 16 16 17 18 18 19 20 19 22 18 16 14 12 11 11 11 10 10 10 10 10 9 9 8 8 9 9 9 9 8 7 7 6 6 4 4 2 1
10 10 13 15 14 15 14 15 14 16 17 17 19 20 18 13 10 9 9 10 10 10 10 9 9 9 8 7 7 6 7 7 7 7 7 6 6 5 5 3 2 0 -1 -2
10 10 10 14 14 14 12 12 15 16 17 16 17 16 13 12 10 10 9 9 9 8 8 8 7 7 6 5 4 5 5 4 3 3 3 3 2 1 0 -1 -2 -3 -4 -4
10 10 12 13 14 14 15 14 15 15 16 15 14 14 11 10 9 9 8 8 7 7 6 6 6 6 4 3 3 3 2 0 -0 0 -0 -0 -0 -1 -1 -2 -2 -3 -4 -4
12 13 13 14 15 14 15 14 15 15 15 13 12 11 10 9 8 7 7 6 5 4 3 2 3 3 3 2 1 0 -0 -1 -2 -2 -2 -2 -2 -2 -2 -2 -3 -3 -4 -5
12 13 13 14 14 14 14 15 15 15 14 13 11 8 7 6 5 4 4 3 3 2 1 0 -0 -0 0 -0 0 -0 -1 -2 -2 -3 -3 -4 -4 -4 -4 -4 -3 -4 -4 -4
12 13 13 14 13 13 13 11 10 12 14 12 9 7 5 3 3 2 2 1 0 0 -1 -1 -1 -1 -1 -1 -1 -1 -2 -2 -3 -3 -4 -4 -5 -5 -6 -6 -6 -6 -6 -6
12 14 12 12 12 11 11 9 8 8 8 7 6 4 2 1 0 -0 -1 -1 -2 -2 -2 -3 -3 -3 -4 -3 -2 -3 -3 -4 -4 -5 -4 -4 -4 -4 -5 -7 -8 -8 -8 -8
11 11 11 12 13 9 8 7 6 5 4 3 2 1 0 -1 -1 -2 -2 -3 -4 -4 -4 -5 -5 -5 -5 -4 -4 -5 -6 -6 -6 -6 -6 -6 -6 -6 -6 -7 -7 -9 -11 -10
11 11 12 12 8 7 7 6 4 3 2 1 0 -1 -1 -2 -2 -4 -4 -5 -5 -5 -6 -6 -6 -7 -6 -6 -6 -7 -7 -8 -8 -8 -9 -8 -8 -9 -9 -9 -10 -11 -11 -12
10 10 10 9 8 7 6 4 2 1 -0 -1 -2 -3 -4 -4 -5 -6 -6 -6 -6 -7 -7 -8 -8 -8 -8 -7 -8 -9 -9 -10 -9 -10 -10 -10 -10 -11 -11 -11 -12 -13 -13 -14
9 10 8 7 5 3 3 2 1 -0 -2 -2 -3 -5 -6 -6 -7 -8 -8 -9 -9 -9 -9 -9 -9 -9 -9 -9 -9 -10 -10 -11 -11 -11 -12 -12 -12 -12 -13 -13 -13 -14 -15 -16
4 4 5 6 3 1 -0 -1 -1 -2 -3 -5 -6 -6 -7 -7 -8 -9 -9 -9 -10 -10 -10 -10 -10 -10 -10 -10 -11 -11 -12 -12 -13 -13 -14 -14 -14 -15 -15 -15 -15 -16 -16 -17
1 1 1 1 1 -0 -1 -2 -3 -5 -6 -7 -7 -8 -8 -9 -9 -9 -10 -10 -10 -11 -11 -11 -12 -12 -12 -12 -13 -13 -14 -14 -15 -15 -16 -16 -16 -16 -17 -17 -18 -18 -18 -18
-1 -1 -1 -2 -2 -2 -3 -5 -6 -7 -7 -8 -9 -9 -9 -10 -10 -10 -11 -11 -11 -12 -12 -13 -13 -14 -14 -13 -14 -15 -15 -16 -16 -17 -17 -18 -18 -18 -19 -19 -19 -19 -20 -20
-2 -2 -3 -4 -5 -6 -6 -7 -7 -8 -9 -9 -9 -10 -10 -11 -11 -11 -11 -12 -13 -13 -14 -14 -14 -15 -15 -15 -16 -16 -17 -17 -18 -18 -19 -19 -19 -20 -20 -20 -20 -21 -21 -22
-4 -5 -5 -6 -6 -7 -7 -8 -8 -9 -10 -11 -11 -11 -12 -12 -13 -13 -13 -13 -14 -15 -15 -16 -15 -15 -15 -15 -16 -17 -18 -18 -19 -20 -20 -20 -20 -21 -21 -22 -22 -22 -23 -23
-6 -6 -7 -7 -7 -8 -9 -9 -10 -10 -10 -11 -11 -11 -11 -12 -12 -13 -14 -15 -16 -15 -16 -16 -16 -16 -16 -16 -17 -18 -18 -19 -20 -20 -21 -21 -21 -22 -22 -23 -23 -22 -23 -24
-7 -7 -7 -8 -8 -8 -9 -10 -10 -11 -12 -12 -13 -13 -14 -15 -16 -16 -16 -15 -15 -16 -16 -17 -17 -17 -17 -18 -18 -19 -19 -20 -20 -20 -21 -21 -22 -22 -22 -22 -22 -23 -23 -24
-7 -7 -8 -8 -9 -9 -10 -11 -11 -12 -12 -13 -13 -14 -14 -15 -16 -17 -17 -17 -17 -17 -17 -18 -18 -18 -18 -19 -19 -19 -20 -20 -20 -21 -21 -22 -21 -21 -22 -22 -23 -23 -24 -24
-7 -8 -8 -9 -9 -10 -10 -11 -12 -13 -14 -15 -15 -16 -17 -17 -17 -17 -17 -17 -17 -18 -18 -19 -19 -19 -19 -19 -20 -20 -20 -21 -21 -22 -22 -21 -21 -22 -22 -23 -23 -23 -23 -23
-9 -9 -9 -10 -10 -11 -11 -12 -13 -13 -14 -15 -16 -17 -17 -17 -17 -17 -17 -18 -18 -19 -19 -19 -19 -20 -20 -20 -20 -21 -21 -22 -22 -22 -21 -21 -22 -22 -22 -22 -23 -23 -23 -23

GFSNGP_925_temp_096.txt.gz
Temp
15 16 16 17 17 18 18 18 18 19 21 23 24 25 26 27 28 27 28 27 26 25 25 24 22 21 20 19 18 17 17 17 16 16 15 15 14 14 14 14 14 14 15 15
14 15 16 16 17 18 19 19 20 20 20 22 24 25 25 26 27 27 27 28 28 26 25 25 23 21 20 20 18 17 17 17 17 16 16 15 15 15 15 15 15 15 15 15
13 15 15 14 16 18 19 21 20 19 21 23 24 24 26 26 26 27 27 27 27 27 25 25 23 21 21 19 18 17 17 17 17 16 16 16 15 15 15 14 14 14 13 13
12 13 13 18 19 20 19 20 20 20 21 22 24 25 26 27 26 26 26 26 26 26 23 22 22 21 20 19 18 17 17 17 16 16 15 15 15 15 14 12 11 10 8 8
11 13 16 17 19 18 18 19 20 19 21 23 24 25 25 26 25 24 21 22 23 23 20 18 18 18 18 18 17 16 13 13 13 13 12 11 10 8 7 7 6 3 2 2
12 11 12 18 18 18 18 18 18 18 18 19 21 21 24 25 19 18 17 18 18 17 15 14 14 14 12 11 9 8 8 8 8 8 7 6 5 4 3 2 0 -0 -1 -1
11 11 14 17 17 17 15 16 16 16 16 18 19 21 22 16 13 14 13 12 12 12 11 11 10 9 8 7 6 5 5 5 4 4 4 3 2 1 0 -1 -1 -2 -3 -3
9 10 11 16 13 11 12 14 16 15 15 16 18 18 16 12 10 10 10 9 10 9 9 9 9 7 6 4 3 3 2 2 2 2 1 1 1 -1 -1 -1 -2 -3 -4 -4
13 12 15 15 13 12 13 14 16 14 13 16 17 17 11 10 9 8 8 7 6 5 6 5 5 5 3 3 2 2 2 1 0 -0 -1 -1 -1 -1 -2 -2 -3 -4 -4 -5
14 15 14 12 11 12 14 16 15 16 16 16 13 12 10 9 9 8 7 6 5 4 4 3 3 3 3 3 2 2 1 1 0 -0 -1 -2 -3 -3 -2 -2 -3 -3 -4 -4
15 15 15 16 16 16 16 16 14 14 16 15 12 10 9 8 7 6 5 4 4 3 3 3 3 3 4 4 3 2 1 0 -1 -2 -3 -4 -4 -4 -5 -5 -3 -3 -4 -4
14 16 15 15 16 16 16 16 14 12 16 14 12 10 8 5 4 3 3 2 2 2 2 2 2 2 2 3 2 1 0 0 -1 -1 -2 -3 -5 -6 -6 -7 -7 -6 -6 -6
15 16 15 15 15 15 15 13 11 11 13 10 8 6 4 2 1 0 0 0 -0 -0 -1 -1 -1 -1 -0 0 -1 -1 -2 -2 -2 -2 -2 -3 -3 -4 -6 -9 -9 -9 -9 -9
16 15 14 15 15 15 13 11 9 8 7 6 4 2 1 0 -1 -2 -2 -3 -3 -3 -4 -3 -4 -5 -4 -4 -4 -4 -4 -3 -3 -3 -3 -4 -4 -4 -5 -6 -7 -9 -11 -11
15 15 15 15 15 13 12 10 8 6 5 3 1 -0 -1 -1 -3 -4 -5 -5 -5 -6 -6 -6 -6 -6 -6 -5 -5 -5 -4 -5 -5 -6 -6 -6 -6 -6 -7 -7 -8 -8 -9 -10
15 14 14 14 14 12 10 9 7 4 2 0 -1 -2 -3 -4 -5 -5 -6 -6 -6 -7 -7 -7 -7 -7 -7 -6 -6 -7 -7 -7 -7 -7 -7 -7 -7 -8 -8 -9 -9 -10 -12 -12
12 13 14 13 11 9 9 7 5 2 -0 -1 -3 -4 -5 -6 -7 -8 -8 -8 -8 -8 -8 -7 -7 -7 -6 -6 -6 -7 -8 -9 -8 -8 -9 -9 -9 -10 -10 -10 -10 -11 -14 -16
8 9 9 9 10 7 5 4 3 0 -2 -4 -6 -6 -6 -7 -8 -9 -9 -9 -10 -10 -10 -9 -8 -8 -8 -8 -8 -9 -9 -10 -10 -10 -11 -11 -11 -11 -12 -12 -12 -13 -13 -15
5 6 6 6 7 5 3 2 -1 -3 -5 -6 -7 -7 -8 -8 -9 -9 -9 -10 -10 -10 -10 -10 -10 -10 -10 -10 -10 -10 -11 -11 -12 -12 -13 -13 -13 -13 -13 -14 -14 -14 -15 -15
1 3 3 3 2 1 -1 -3 -5 -6 -7 -8 -8 -8 -8 -9 -9 -9 -9 -10 -10 -10 -11 -11 -11 -11 -12 -12 -12 -12 -12 -13 -13 -14 -14 -14 -14 -14 -16 -16 -16 -16 -16 -16
-1 -1 -1 -2 -3 -4 -5 -6 -7 -7 -8 -8 -9 -10 -10 -10 -10 -10 -10 -10 -11 -12 -12 -12 -12 -12 -13 -13 -13 -14 -14 -14 -14 -14 -15 -15 -15 -15 -16 -16 -16 -17 -17 -18
-4 -4 -5 -5 -5 -6 -7 -7 -8 -9 -9 -10 -10 -11 -11 -11 -12 -12 -12 -12 -13 -13 -13 -13 -14 -15 -15 -14 -14 -15 -15 -15 -15 -15 -16 -16 -16 -16 -17 -17 -18 -18 -18 -19
-6 -6 -7 -7 -8 -9 -9 -9 -10 -10 -10 -10 -10 -10 -11 -11 -12 -12 -12 -14 -14 -15 -15 -16 -16 -17 -17 -16 -16 -16 -16 -17 -17 -17 -17 -18 -18 -18 -18 -19 -19 -19 -20 -20
-6 -7 -7 -8 -8 -8 -8 -10 -10 -11 -12 -12 -12 -12 -12 -13 -14 -14 -15 -16 -16 -16 -17 -17 -17 -18 -17 -17 -17 -17 -17 -17 -18 -18 -19 -19 -19 -19 -20 -20 -20 -21 -21 -21
-7 -7 -8 -8 -8 -9 -10 -11 -11 -12 -12 -13 -13 -13 -13 -14 -14 -15 -16 -17 -17 -17 -18 -17 -18 -18 -17 -17 -18 -18 -18 -18 -19 -19 -19 -20 -20 -20 -20 -21 -21 -22 -22 -22
-7 -7 -8 -8 -9 -10 -10 -11 -11 -12 -13 -14 -14 -15 -15 -16 -16 -16 -17 -17 -17 -18 -18 -18 -18 -18 -18 -18 -19 -19 -19 -19 -20 -20 -21 -21 -21 -21 -22 -22 -22 -22 -23 -23
-9 -9 -9 -9 -10 -11 -11 -11 -12 -13 -13 -14 -14 -15 -15 -16 -17 -17 -17 -17 -18 -18 -18 -18 -18 -19 -19 -19 -19 -20 -20 -21 -21 -21 -21 -21 -22 -22 -23 -23 -23 -23 -24 -24

GFSNGP_925_temp_102.txt.gz
Temp
15 17 17 17 17 17 18 19 17 19 21 23 23 22 24 25 26 26 27 27 28 28 27 26 25 23 22 20 20 20 19 18 17 17 16 16 16 16 16 16 16 16 16 16
14 16 17 17 18 18 18 19 20 21 21 23 24 25 25 25 26 25 26 27 28 29 28 27 25 24 23 21 19 19 19 19 19 18 17 17 17 17 16 16 16 16 16 16
13 15 16 16 17 18 19 20 20 19 21 23 23 24 24 24 25 25 25 26 26 28 28 27 26 25 23 22 20 19 19 19 19 18 18 17 17 17 16 16 12 12 10 10
12 13 12 17 20 20 20 21 22 22 22 23 24 24 24 24 25 25 26 26 26 26 26 28 27 25 25 23 21 19 19 19 19 19 18 18 16 11 11 10 8 6 4 3
11 13 15 17 19 19 16 18 17 16 18 20 21 21 22 19 20 21 23 25 23 23 24 26 26 25 25 23 22 21 20 20 20 19 10 9 7 6 5 5 3 1 1 0
11 11 12 17 18 19 18 16 15 16 15 17 19 17 20 17 19 18 18 19 22 22 22 21 16 23 24 21 17 10 9 8 8 7 6 4 2 2 1 0 -1 -2 -2 -2
11 10 14 18 18 19 15 14 13 15 16 16 16 18 17 16 16 16 15 14 16 13 13 12 10 9 8 6 5 4 4 4 4 3 2 0 -0 -1 -1 -2 -3 -3 -3 -4
11 11 11 17 17 14 14 15 14 15 15 15 15 16 15 15 12 11 11 10 10 10 9 9 8 6 4 3 3 2 2 1 0 0 -0 -0 -1 -2 -2 -3 -3 -4 -4 -4
13 14 16 16 16 15 14 14 14 14 15 15 15 15 13 12 9 8 8 8 7 6 5 4 5 4 3 2 2 1 1 0 -0 -1 -1 -2 -2 -2 -3 -3 -3 -3 -4 -4
12 14 13 15 17 15 15 14 15 15 15 15 13 12 12 10 8 7 6 6 5 4 4 3 3 2 2 1 1 0 -1 -1 -2 -2 -3 -3 -2 -2 -2 -2 -3 -4 -4 -6
14 14 15 16 16 15 15 15 15 16 15 13 13 10 9 7 6 5 4 4 4 4 3 3 2 2 1 0 -0 -1 -2 -3 -4 -4 -5 -5 -6 -5 -6 -5 -5 -6 -6 -7
12 13 13 13 16 17 16 16 15 14 14 11 10 7 5 3 2 2 2 2 3 3 3 2 2 1 1 0 -0 -1 -2 -3 -4 -5 -6 -6 -7 -8 -8 -8 -8 -8 -9 -9
15 16 16 16 17 17 17 15 13 12 9 8 5 3 2 0 -1 -2 -3 -2 -2 -2 -1 -0 1 1 1 -0 -1 -2 -3 -4 -4 -5 -6 -7 -7 -8 -9 -9 -9 -9 -10 -10
16 16 15 16 16 17 17 13 10 7 5 3 2 1 -1 -3 -4 -4 -4 -5 -4 -4 -4 -3 -3 -3 -2 -2 -2 -2 -3 -3 -3 -4 -5 -6 -7 -7 -8 -9 -10 -10 -10 -10
16 17 15 16 16 17 17 14 12 6 3 1 -1 -2 -3 -4 -4 -5 -5 -5 -5 -5 -5 -5 -5 -5 -4 -4 -4 -4 -4 -4 -4 -4 -5 -5 -5 -6 -7 -8 -9 -9 -9 -10
16 15 15 15 13 16 15 14 10 5 2 -0 -2 -3 -5 -5 -5 -5 -5 -5 -5 -5 -5 -6 -6 -6 -5 -5 -6 -6 -5 -5 -5 -5 -6 -6 -7 -7 -8 -10 -11 -13 -13 -12
13 13 12 12 13 13 13 12 10 4 1 -1 -3 -5 -5 -6 -7 -7 -7 -7 -7 -7 -6 -6 -7 -7 -7 -7 -7 -7 -7 -7 -7 -7 -7 -7 -8 -8 -9 -11 -12 -13 -13 -12
10 10 10 10 10 11 11 7 4 1 -1 -3 -6 -6 -6 -7 -7 -8 -8 -8 -8 -8 -8 -8 -8 -8 -8 -8 -8 -8 -8 -8 -8 -9 -9 -9 -9 -9 -10 -10 -11 -12 -13 -13
6 6 7 7 7 8 6 3 -0 -3 -5 -6 -7 -7 -8 -8 -8 -8 -9 -9 -9 -9 -9 -9 -9 -9 -9 -9 -9 -9 -9 -9 -10 -10 -10 -10 -10 -11 -11 -11 -12 -12 -13 -13
2 2 1 0 -0 0 -1 -3 -4 -5 -7 -7 -8 -7 -8 -9 -9 -10 -10 -10 -10 -10 -10 -9 -9 -9 -9 -9 -9 -10 -10 -10 -10 -11 -11 -12 -12 -12 -12 -12 -13 -13 -13 -14
-1 -1 -2 -3 -3 -4 -4 -5 -6 -7 -7 -8 -8 -9 -9 -10 -10 -10 -10 -10 -10 -9 -9 -9 -10 -10 -10 -10 -10 -11 -11 -11 -11 -12 -12 -12 -12 -13 -13 -13 -14 -14 -15 -15
-3 -4 -4 -5 -5 -6 -6 -7 -7 -8 -8 -8 -9 -10 -10 -11 -11 -11 -11 -11 -12 -12 -12 -12 -11 -11 -11 -11 -11 -11 -12 -12 -12 -12 -12 -12 -13 -14 -14 -14 -15 -15 -16 -16
-5 -6 -7 -7 -7 -8 -8 -9 -9 -9 -9 -10 -10 -10 -10 -11 -11 -11 -12 -13 -13 -14 -13 -13 -13 -12 -12 -13 -13 -13 -13 -13 -13 -14 -14 -14 -14 -15 -16 -16 -16 -16 -17 -18
-6 -7 -7 -8 -8 -8 -8 -9 -9 -10 -10 -11 -11 -12 -12 -13 -14 -14 -14 -14 -15 -14 -14 -14 -13 -13 -13 -13 -13 -14 -14 -14 -15 -15 -15 -15 -16 -16 -16 -17 -17 -17 -18 -18
-6 -6 -7 -8 -8 -9 -9 -10 -11 -11 -11 -12 -12 -12 -13 -13 -14 -15 -16 -16 -15 -15 -15 -14 -14 -14 -14 -14 -14 -14 -15 -15 -15 -15 -16 -16 -16 -17 -17 -18 -18 -19 -19 -19
-6 -6 -7 -8 -8 -9 -9 -9 -10 -11 -12 -13 -13 -14 -14 -14 -15 -15 -15 -15 -15 -15 -15 -15 -15 -15 -15 -15 -15 -16 -16 -16 -17 -17 -17 -17 -17 -18 -18 -19 -19 -19 -20 -20
-7 -7 -8 -8 -8 -9 -10 -10 -11 -12 -13 -13 -13 -14 -14 -15 -15 -15 -15 -15 -15 -15 -15 -15 -15 -15 -15 -16 -16 -16 -16 -17 -17 -17 -18 -18 -18 -18 -19 -20 -20 -20 -21 -21

GFSNGP_925_temp_105.txt.gz
Temp
13 13 14 14 15 16 16 16 13 15 14 17 20 19 19 18 21 23 24 23 24 19 19 20 19 18 17 17 17 16 15 14 14 15 15 15 15 15 14 14 15 15 15 15
11 13 13 13 14 15 16 17 17 17 17 19 21 21 22 21 22 23 23 24 25 24 19 20 20 19 18 18 18 17 16 15 14 14 15 15 15 15 15 15 15 15 15 14
10 12 13 11 14 15 16 17 17 16 18 20 20 21 18 17 18 18 18 18 22 24 24 17 20 21 19 18 18 17 17 16 15 15 15 15 15 15 15 14 13 12 11 10
9 10 9 13 15 17 17 18 18 16 15 15 16 18 17 17 16 16 16 16 16 18 18 22 23 21 20 18 18 18 17 17 16 16 15 15 14 11 10 8 8 6 5 5
8 10 11 14 16 16 16 15 14 14 14 15 15 17 14 15 16 15 14 14 14 12 12 11 14 19 18 18 17 17 17 17 18 17 12 10 7 5 4 4 2 1 0 -0
8 9 9 14 14 15 16 13 12 14 13 14 14 12 14 14 13 13 12 11 12 10 10 9 8 17 18 16 13 9 10 10 11 9 8 5 3 2 1 1 -1 -2 -2 -2
8 7 10 14 16 16 13 11 12 13 13 13 12 13 14 13 11 10 10 9 8 7 7 7 6 6 5 5 4 4 4 5 6 5 4 2 1 -0 -1 -2 -3 -3 -3 -3
8 7 8 14 15 14 11 13 13 13 13 13 12 13 13 11 9 8 8 7 7 6 5 5 5 4 4 3 2 2 2 1 1 0 -0 -1 -1 -2 -2 -3 -4 -4 -4 -5
8 9 11 11 11 11 12 12 13 12 12 12 11 12 12 8 7 7 6 6 5 5 4 3 3 3 3 2 2 1 1 -0 -1 -1 -2 -2 -2 -3 -3 -3 -3 -4 -4 -5
10 11 11 12 12 12 13 13 13 13 13 11 11 10 9 7 6 5 4 4 4 4 3 2 2 1 1 1 0 -0 -1 -1 -2 -2 -2 -2 -2 -3 -3 -4 -4 -5 -6 -7
9 10 11 11 12 13 13 12 13 13 10 9 9 6 6 4 4 3 3 3 3 3 2 1 1 0 -0 -1 -2 -2 -3 -3 -4 -5 -5 -6 -6 -6 -6 -6 -6 -7 -7 -8
9 9 9 11 13 12 12 13 13 11 8 7 6 5 3 1 0 0 -0 -1 1 1 1 1 0 -1 -1 -2 -3 -3 -4 -5 -5 -6 -7 -7 -7 -8 -8 -8 -9 -9 -9 -8
12 13 12 13 14 13 12 10 8 7 6 4 3 1 0 -1 -2 -3 -3 -3 -2 -2 -2 -2 -1 -1 -2 -3 -4 -4 -5 -6 -6 -7 -7 -8 -8 -9 -9 -9 -9 -9 -9 -9
13 13 12 13 12 13 9 7 5 3 2 2 0 -1 -2 -3 -4 -4 -4 -4 -4 -4 -4 -3 -3 -3 -3 -3 -4 -5 -5 -6 -7 -7 -8 -9 -9 -9 -10 -10 -10 -10 -10 -10
13 13 12 12 12 12 10 7 4 2 0 -1 -2 -3 -3 -4 -4 -5 -5 -4 -4 -4 -4 -4 -4 -4 -4 -4 -4 -4 -4 -5 -5 -6 -6 -7 -8 -9 -10 -10 -10 -10 -10 -11
12 11 11 11 10 11 10 7 3 1 -1 -2 -3 -4 -5 -5 -5 -6 -5 -5 -5 -5 -6 -6 -6 -6 -5 -5 -6 -6 -6 -6 -7 -7 -8 -9 -9 -10 -11 -12 -12 -12 -12 -12
7 7 8 8 8 8 8 7 3 -0 -2 -3 -4 -5 -6 -7 -7 -7 -7 -7 -7 -7 -7 -7 -7 -7 -6 -7 -7 -7 -7 -8 -7 -8 -8 -9 -11 -12 -13 -13 -13 -13 -13 -12
4 5 5 4 4 5 4 1 -1 -2 -3 -5 -6 -6 -7 -7 -7 -8 -8 -8 -8 -8 -8 -8 -8 -8 -8 -8 -8 -9 -9 -9 -9 -10 -10 -10 -11 -12 -13 -13 -13 -13 -13 -14
2 2 1 1 1 1 -1 -3 -4 -5 -6 -6 -7 -7 -8 -8 -8 -9 -9 -9 -9 -9 -9 -9 -9 -9 -9 -9 -9 -10 -10 -10 -10 -11 -11 -11 -12 -12 -12 -13 -13 -14 -14 -15
-1 -1 -2 -2 -2 -2 -3 -4 -5 -6 -7 -7 -7 -8 -9 -9 -10 -10 -10 -10 -10 -10 -10 -10 -10 -10 -10 -10 -10 -10 -11 -11 -11 -12 -12 -12 -12 -13 -13 -14 -14 -14 -15 -15
-3 -3 -4 -4 -5 -5 -6 -6 -7 -7 -7 -8 -9 -9 -10 -10 -10 -10 -10 -10 -10 -10 -10 -10 -10 -10 -10 -11 -11 -11 -11 -12 -12 -12 -13 -13 -13 -14 -14 -14 -15 -15 -16 -16
-6 -8 -7 -7 -7 -7 -7 -8 -8 -8 -9 -9 -10 -10 -10 -11 -11 -12 -12 -12 -12 -11 -11 -11 -11 -11 -11 -11 -12 -12 -12 -12 -13 -13 -13 -14 -14 -15 -15 -15 -16 -16 -16 -17
-7 -8 -8 -8 -8 -9 -9 -9 -9 -9 -10 -10 -11 -11 -11 -11 -12 -12 -13 -13 -12 -12 -12 -12 -12 -12 -12 -12 -12 -13 -13 -13 -13 -14 -14 -14 -15 -15 -16 -16 -17 -17 -17 -18
-7 -8 -8 -8 -9 -9 -9 -10 -11 -11 -11 -12 -12 -12 -13 -13 -14 -14 -14 -13 -13 -13 -13 -13 -13 -13 -13 -13 -13 -13 -14 -14 -15 -15 -15 -16 -16 -17 -17 -17 -18 -18 -18 -19
-7 -8 -9 -9 -9 -10 -11 -11 -11 -12 -12 -12 -13 -13 -14 -14 -15 -15 -14 -14 -14 -13 -13 -13 -13 -13 -14 -14 -14 -15 -15 -15 -15 -16 -16 -16 -17 -17 -18 -18 -18 -19 -19 -19
-7 -8 -8 -9 -9 -10 -10 -11 -12 -13 -13 -14 -14 -14 -15 -15 -15 -15 -15 -14 -14 -14 -14 -14 -14 -15 -15 -15 -15 -15 -16 -16 -16 -17 -17 -17 -17 -18 -18 -19 -19 -19 -19 -20
-8 -8 -9 -9 -10 -11 -12 -12 -12 -13 -13 -14 -14 -14 -15 -15 -15 -15 -15 -15 -15 -15 -15 -15 -15 -15 -15 -16 -16 -16 -16 -17 -17 -17 -18 -18 -18 -18 -19 -19 -19 -20 -20 -20

GFSNGP_925_temp_108.txt.gz
Temp
11 12 12 12 12 13 13 13 11 13 14 17 17 17 17 16 14 17 18 20 19 18 17 16 15 15 15 14 13 13 14 14 13 12 13 13 12 12 13 12 12 13 13 12
10 11 11 11 12 12 13 14 14 15 16 18 17 18 18 18 18 17 16 16 15 18 17 17 16 15 15 15 14 14 13 14 14 13 13 13 13 13 13 13 12 12 12 12
10 11 10 10 11 12 13 14 15 14 16 15 15 18 16 15 15 15 15 14 14 14 13 12 18 17 16 15 15 14 14 13 13 14 13 13 13 13 12 12 12 11 10 9
8 9 8 12 13 13 13 15 15 15 14 14 14 14 14 15 14 13 13 13 12 11 11 10 10 17 16 16 15 14 14 14 13 13 13 13 13 12 10 9 9 8 6 6
5 7 10 11 14 13 12 13 12 12 12 13 13 13 13 13 13 12 11 11 10 9 8 8 7 12 16 16 16 15 15 14 14 14 12 11 9 7 6 6 4 3 2 2
6 7 9 12 13 14 13 11 12 12 12 12 13 11 12 12 12 11 9 8 8 7 7 6 6 8 15 15 15 11 12 12 13 11 9 7 5 3 2 2 1 0 -0 -1
7 5 8 12 14 14 10 11 12 12 12 12 12 12 12 11 10 8 7 7 6 5 5 5 5 6 5 5 4 5 6 7 7 7 7 6 3 2 1 -1 -2 -2 -3 -3
7 5 7 12 11 12 10 12 12 12 12 11 11 11 10 8 7 6 5 5 5 4 4 4 4 4 4 4 3 3 3 3 2 2 1 0 -0 -1 -2 -3 -3 -4 -4 -4
7 8 11 10 10 10 10 11 12 12 11 11 10 10 8 6 5 5 5 4 4 3 3 2 2 3 3 2 2 1 1 0 -0 -1 -1 -2 -2 -3 -3 -3 -4 -4 -5 -6
9 9 8 10 11 11 11 12 13 12 11 10 8 9 7 5 4 4 4 4 3 3 2 1 0 0 1 1 0 -0 -1 -1 -1 -2 -2 -3 -3 -3 -4 -4 -5 -6 -6 -7
8 7 8 10 10 11 10 11 11 8 8 8 7 5 4 3 2 2 1 2 2 1 1 -0 -1 -1 -1 -2 -2 -2 -3 -3 -4 -5 -5 -6 -6 -6 -6 -6 -6 -7 -7 -7
7 8 8 10 11 10 11 11 10 7 5 4 4 3 1 -0 -1 -1 -1 -0 -0 1 0 -1 -1 -2 -3 -3 -4 -4 -5 -5 -6 -6 -7 -7 -7 -7 -7 -7 -7 -8 -8 -8
10 12 11 11 12 11 8 7 6 5 4 2 1 0 -1 -2 -3 -3 -3 -2 -2 -2 -2 -2 -3 -3 -4 -4 -5 -5 -6 -6 -7 -7 -7 -7 -8 -8 -8 -8 -8 -8 -8 -9
11 12 11 11 9 8 6 4 3 1 1 0 -1 -2 -2 -3 -4 -4 -4 -4 -3 -3 -3 -3 -4 -4 -5 -4 -4 -6 -7 -7 -8 -8 -9 -9 -9 -9 -9 -9 -9 -9 -9 -9
10 10 10 10 9 8 6 4 2 0 -1 -2 -2 -3 -3 -4 -5 -5 -5 -5 -5 -5 -5 -5 -4 -4 -5 -5 -6 -6 -7 -8 -8 -9 -9 -9 -9 -9 -9 -10 -10 -11 -11 -11
8 7 7 7 8 9 7 4 1 -0 -2 -2 -3 -4 -5 -6 -6 -6 -6 -6 -6 -6 -6 -6 -6 -6 -5 -5 -6 -6 -7 -7 -8 -8 -9 -10 -10 -10 -11 -11 -11 -12 -13 -14
4 3 3 3 4 5 4 3 1 -2 -2 -3 -4 -5 -6 -6 -7 -7 -8 -7 -7 -7 -7 -7 -7 -6 -6 -6 -7 -7 -8 -8 -9 -10 -10 -11 -11 -12 -12 -12 -13 -13 -14 -13
1 1 1 1 1 2 0 -1 -2 -3 -3 -5 -6 -6 -7 -7 -8 -8 -8 -8 -8 -8 -8 -8 -7 -7 -7 -8 -8 -8 -9 -9 -10 -11 -12 -12 -12 -13 -13 -13 -14 -14 -15 -15
-1 -1 -1 -1 -0 -1 -1 -2 -3 -5 -6 -6 -7 -8 -8 -8 -9 -9 -9 -9 -9 -9 -9 -8 -8 -8 -8 -8 -9 -9 -10 -10 -11 -11 -12 -12 -13 -13 -14 -14 -15 -15 -15 -15
-3 -3 -4 -3 -4 -3 -4 -5 -5 -6 -7 -8 -8 -8 -9 -9 -9 -10 -10 -10 -10 -9 -9 -9 -9 -10 -10 -10 -10 -10 -11 -12 -12 -13 -13 -13 -14 -14 -14 -14 -15 -15 -15 -16
-6 -6 -6 -6 -6 -6 -6 -7 -7 -7 -8 -8 -9 -9 -10 -10 -10 -10 -10 -10 -10 -10 -10 -10 -10 -11 -11 -11 -11 -11 -12 -12 -13 -13 -14 -14 -14 -14 -15 -15 -15 -16 -16 -17
-9 -10 -10 -9 -8 -8 -8 -8 -8 -9 -9 -10 -10 -10 -11 -12 -12 -12 -11 -11 -11 -10 -11 -11 -11 -11 -11 -11 -12 -12 -12 -13 -13 -13 -14 -14 -14 -15 -15 -16 -16 -16 -17 -17
-9 -9 -9 -10 -9 -9 -9 -9 -10 -10 -10 -11 -11 -11 -11 -12 -12 -12 -12 -12 -11 -11 -11 -12 -12 -11 -12 -12 -12 -12 -13 -13 -13 -14 -14 -14 -15 -15 -16 -16 -17 -17 -17 -18
-8 -9 -10 -10 -10 -10 -11 -12 -12 -12 -12 -12 -12 -12 -13 -13 -13 -13 -12 -12 -12 -12 -12 -12 -12 -12 -12 -12 -12 -13 -13 -13 -14 -14 -15 -15 -16 -16 -16 -17 -17 -18 -18 -18
-9 -9 -10 -10 -11 -11 -12 -12 -12 -13 -13 -13 -13 -13 -13 -13 -13 -13 -13 -13 -13 -13 -13 -13 -13 -13 -13 -13 -13 -14 -14 -14 -15 -15 -16 -16 -16 -17 -17 -18 -18 -18 -19 -19
-8 -9 -9 -10 -10 -11 -12 -12 -13 -13 -14 -14 -15 -15 -14 -14 -14 -14 -13 -13 -13 -13 -14 -13 -14 -14 -14 -14 -14 -15 -15 -16 -16 -16 -16 -17 -17 -18 -18 -18 -19 -19 -19 -20
-9 -9 -10 -11 -11 -12 -12 -13 -13 -13 -14 -14 -15 -15 -14 -14 -14 -14 -14 -14 -14 -14 -15 -15 -14 -15 -15 -15 -15 -16 -16 -16 -17 -17 -17 -18 -18 -18 -19 -19 -19 -19 -20 -20

GFSNGP_925_temp_114.txt.gz
Temp
10 10 10 10 10 10 10 10 9 11 10 12 12 14 13 14 14 14 13 13 12 12 12 12 12 13 13 12 12 12 12 13 13 12 12 12 12 12 12 12 12 12 12 12
9 10 9 9 9 9 9 10 9 10 10 12 13 13 13 14 15 14 14 13 12 12 12 11 11 10 13 12 12 12 12 12 13 12 12 12 12 12 12 12 11 11 11 11
8 9 9 8 9 9 9 10 10 9 11 11 12 13 13 14 13 13 13 12 11 10 10 9 8 8 9 12 12 12 12 12 13 12 11 12 12 12 11 11 11 11 11 11
7 8 6 9 10 10 9 10 10 11 12 12 12 12 12 12 12 12 11 10 9 8 8 7 6 7 7 10 12 11 11 12 12 11 11 11 11 11 11 10 10 10 9 9
4 6 8 9 10 11 10 10 10 10 11 11 11 11 11 11 10 9 8 8 7 6 6 5 6 6 7 9 12 12 12 12 12 13 11 10 10 10 9 8 7 7 6 7
5 5 5 9 10 11 9 8 8 7 9 11 11 11 11 9 8 7 6 6 5 5 4 4 4 5 7 12 12 12 12 12 12 11 11 10 10 8 6 6 4 3 2 1
7 6 7 9 10 11 8 9 7 8 10 10 10 9 9 8 6 6 5 4 4 4 3 2 3 4 6 5 5 7 11 11 10 10 9 9 7 6 4 2 1 -1 -2 -2
6 6 5 8 8 8 9 9 9 9 10 10 9 10 8 6 5 4 4 4 3 3 2 1 1 3 3 3 2 4 7 7 6 5 4 4 3 1 0 -1 -2 -3 -3 -4
7 7 7 6 8 8 9 8 9 9 10 9 8 9 6 5 4 4 3 3 2 2 1 -0 -0 0 1 1 1 0 2 1 1 1 0 1 -1 -2 -2 -3 -3 -3 -4 -4
6 7 6 6 8 9 7 7 9 7 7 7 7 6 5 3 2 2 2 2 1 1 -0 -1 -2 -2 -1 -1 -1 -1 -2 -2 -2 -2 -2 -1 -2 -2 -3 -3 -3 -4 -5 -6
7 6 7 9 8 7 7 8 4 4 3 4 4 3 2 1 0 0 0 0 0 -0 -1 -2 -2 -3 -3 -3 -2 -3 -4 -4 -4 -5 -5 -5 -5 -5 -5 -5 -5 -5 -6 -6
6 6 6 7 7 6 5 5 5 4 2 2 2 2 1 -1 -1 -2 -2 -1 -1 -2 -2 -3 -3 -4 -4 -4 -4 -4 -4 -5 -5 -5 -5 -5 -5 -6 -5 -5 -4 -5 -6 -5
5 6 7 5 6 5 3 3 2 2 2 1 -0 -1 -1 -2 -4 -4 -4 -4 -4 -3 -4 -4 -5 -5 -5 -5 -4 -5 -5 -5 -6 -6 -6 -5 -5 -5 -6 -6 -6 -6 -6 -7
3 5 5 5 5 5 3 1 0 -0 -1 -1 -2 -2 -3 -4 -5 -5 -6 -6 -5 -5 -5 -5 -6 -6 -6 -6 -6 -6 -6 -6 -6 -6 -6 -6 -6 -6 -7 -7 -7 -7 -8 -8
2 3 3 3 3 4 5 3 0 -1 -2 -2 -3 -3 -4 -4 -5 -6 -6 -6 -6 -6 -6 -6 -7 -7 -7 -7 -7 -8 -8 -8 -8 -8 -7 -7 -8 -8 -8 -8 -9 -9 -10 -9
1 2 1 1 1 2 1 0 -1 -1 -2 -3 -4 -4 -5 -6 -7 -7 -7 -7 -7 -7 -7 -7 -7 -8 -8 -8 -8 -8 -8 -8 -8 -9 -9 -9 -10 -10 -11 -11 -11 -12 -13 -13
-0 -0 -0 -1 -0 0 0 -1 -1 -2 -2 -3 -4 -5 -6 -7 -7 -8 -8 -8 -8 -8 -8 -8 -7 -8 -8 -8 -9 -9 -9 -9 -9 -10 -10 -10 -11 -11 -12 -12 -13 -14 -14 -13
-2 -2 -2 -2 -2 -2 -1 -1 -2 -3 -4 -5 -6 -7 -7 -7 -8 -8 -8 -8 -8 -8 -8 -8 -8 -8 -8 -8 -9 -9 -9 -10 -10 -11 -11 -11 -12 -12 -13 -14 -14 -15 -15 -14
-4 -4 -4 -3 -4 -4 -3 -3 -5 -6 -6 -7 -7 -8 -8 -8 -8 -9 -9 -9 -9 -9 -9 -8 -8 -8 -8 -9 -8 -9 -10 -10 -11 -12 -12 -13 -13 -13 -14 -14 -15 -16 -15 -15
-6 -6 -6 -6 -6 -7 -6 -7 -6 -7 -8 -8 -8 -9 -9 -9 -9 -9 -10 -10 -10 -10 -9 -9 -9 -9 -9 -9 -9 -10 -11 -11 -12 -13 -13 -13 -14 -15 -15 -15 -15 -15 -15 -16
-9 -8 -9 -9 -9 -9 -9 -8 -8 -9 -9 -9 -9 -10 -10 -10 -10 -10 -10 -10 -10 -10 -10 -9 -9 -10 -10 -10 -10 -11 -11 -12 -13 -13 -13 -14 -14 -14 -15 -15 -15 -15 -16 -16
-11 -12 -12 -11 -11 -11 -11 -10 -10 -10 -10 -10 -10 -10 -11 -11 -11 -11 -11 -11 -11 -10 -10 -11 -11 -11 -11 -10 -11 -11 -12 -12 -12 -13 -13 -13 -14 -14 -15 -15 -15 -16 -16 -17
-10 -11 -11 -11 -12 -12 -12 -11 -11 -11 -11 -11 -11 -11 -11 -11 -11 -11 -12 -12 -11 -11 -11 -12 -12 -11 -10 -11 -11 -11 -12 -12 -12 -13 -13 -13 -14 -14 -15 -15 -16 -16 -17 -17
-10 -10 -11 -11 -11 -12 -14 -13 -13 -12 -12 -12 -12 -12 -12 -12 -12 -12 -12 -12 -11 -11 -12 -12 -12 -11 -11 -11 -12 -12 -12 -12 -13 -13 -14 -14 -14 -15 -15 -16 -16 -17 -17 -18
-10 -11 -11 -12 -13 -13 -13 -13 -13 -13 -13 -13 -13 -12 -12 -12 -12 -13 -12 -12 -12 -12 -12 -12 -12 -11 -12 -12 -12 -12 -13 -13 -13 -13 -14 -14 -15 -15 -16 -16 -17 -17 -18 -18
-10 -10 -11 -11 -12 -12 -13 -13 -14 -14 -14 -14 -14 -14 -13 -13 -13 -13 -13 -13 -13 -13 -13 -13 -12 -12 -12 -13 -13 -13 -13 -14 -14 -14 -15 -15 -16 -16 -16 -17 -17 -18 -18 -19
-10 -11 -12 -12 -12 -13 -13 -13 -14 -14 -14 -14 -14 -14 -14 -13 -13 -14 -14 -14 -14 -14 -14 -14 -13 -13 -13 -14 -14 -14 -15 -15 -15 -15 -16 -16 -16 -17 -17 -18 -18 -18 -18 -19

GFSNGP_925_temp_117.txt.gz
Temp
11 11 11 11 11 12 12 12 12 14 13 14 15 15 15 15 15 15 16 15 15 14 13 11 11 10 9 11 12 12 12 13 13 12 13 13 13 13 12 12 12 12 12 12
10 10 11 10 11 11 11 11 11 12 12 14 14 14 14 14 15 15 15 14 13 13 12 10 9 9 8 8 12 12 12 13 13 12 12 12 13 12 12 12 12 11 11 11
9 10 10 9 11 11 11 12 12 11 13 14 13 14 14 14 15 14 13 12 11 10 9 8 7 7 7 7 8 12 12 13 12 12 12 12 12 12 11 11 11 11 11 11
8 8 7 11 11 11 11 12 12 12 12 13 13 14 14 14 13 12 11 10 9 8 8 7 6 6 5 6 8 11 12 12 12 12 12 11 12 11 11 10 11 10 9 9
7 8 10 10 11 11 11 12 12 11 11 10 11 13 13 11 10 9 8 7 7 6 6 6 5 4 5 7 9 11 12 12 12 12 11 11 11 10 10 9 7 7 6 7
6 7 7 10 11 12 11 10 9 8 7 9 12 12 13 10 8 7 7 5 5 5 5 4 3 3 5 5 7 12 12 12 12 11 10 10 9 7 6 6 4 3 2 2
7 7 8 10 10 11 10 10 9 7 6 10 10 10 9 7 7 6 5 5 4 4 3 2 1 2 3 3 2 3 8 11 11 10 9 8 6 5 4 2 1 -0 -1 -1
7 7 7 8 10 9 9 8 7 8 8 9 9 8 7 7 5 4 4 4 3 2 1 0 0 0 1 1 1 2 4 6 7 7 6 5 4 1 1 0 -1 -3 -3 -3
7 8 8 8 8 9 8 8 8 8 8 9 8 7 6 5 4 3 2 2 2 1 0 -1 -1 -1 -1 -1 -1 0 1 0 1 2 1 1 0 -1 -1 -2 -2 -3 -3 -4
6 7 7 7 8 9 8 8 8 6 6 6 5 5 4 4 2 2 1 1 1 0 -1 -1 -2 -2 -3 -3 -2 -1 -2 -1 -0 -1 -1 -1 -1 -2 -2 -3 -3 -4 -4 -5
7 6 5 6 5 6 6 6 4 4 4 4 4 3 2 1 1 0 -0 -1 -0 -1 -2 -2 -3 -4 -4 -3 -3 -3 -3 -3 -3 -3 -4 -4 -4 -3 -3 -4 -3 -5 -5 -6
6 4 4 4 2 3 4 4 3 4 3 2 2 1 0 -1 -2 -2 -2 -3 -2 -2 -3 -4 -4 -4 -5 -4 -4 -4 -4 -4 -4 -4 -4 -4 -5 -5 -5 -5 -4 -5 -6 -6
3 2 3 3 4 3 2 1 1 1 1 1 -0 -1 -2 -2 -3 -4 -4 -5 -5 -4 -5 -5 -5 -6 -5 -5 -5 -5 -5 -5 -5 -5 -5 -5 -5 -5 -5 -6 -6 -6 -7 -7
2 4 4 3 3 3 3 2 1 0 -1 -1 -1 -2 -2 -3 -5 -5 -6 -7 -7 -6 -6 -6 -7 -7 -6 -6 -6 -6 -6 -6 -6 -5 -5 -6 -6 -6 -6 -6 -6 -7 -7 -7
1 2 1 1 2 2 2 2 1 0 -1 -1 -2 -3 -4 -4 -5 -6 -7 -7 -7 -7 -7 -7 -8 -8 -7 -7 -7 -7 -7 -7 -7 -7 -7 -7 -7 -7 -7 -8 -8 -8 -8 -9
1 1 1 0 0 1 1 1 0 -0 -1 -2 -3 -4 -5 -6 -6 -7 -8 -7 -7 -7 -8 -8 -8 -8 -8 -8 -8 -8 -8 -8 -9 -9 -9 -9 -9 -10 -10 -10 -11 -11 -11 -12
-1 -1 -1 -1 -1 -1 -1 -1 -1 -1 -2 -3 -4 -5 -6 -6 -7 -7 -8 -8 -8 -8 -8 -8 -8 -8 -8 -8 -8 -9 -9 -9 -9 -9 -9 -9 -10 -10 -11 -12 -12 -13 -13 -14
-3 -3 -3 -2 -3 -3 -2 -2 -3 -4 -4 -5 -6 -7 -7 -7 -7 -8 -8 -8 -8 -8 -8 -9 -9 -9 -9 -9 -9 -9 -9 -9 -10 -10 -11 -11 -12 -12 -13 -13 -14 -14 -15 -16
-5 -5 -5 -4 -5 -5 -4 -4 -5 -6 -7 -7 -7 -8 -8 -8 -8 -9 -9 -9 -9 -8 -9 -9 -9 -9 -9 -9 -9 -10 -10 -10 -11 -11 -12 -12 -13 -13 -14 -14 -15 -15 -15 -16
-6 -6 -7 -7 -7 -8 -7 -8 -7 -7 -8 -8 -8 -9 -9 -9 -9 -10 -10 -9 -10 -10 -10 -9 -9 -9 -9 -9 -9 -10 -11 -11 -12 -12 -12 -13 -14 -14 -15 -15 -15 -16 -16 -17
-8 -8 -9 -9 -10 -11 -11 -10 -9 -9 -9 -9 -9 -10 -10 -10 -10 -10 -9 -9 -10 -10 -10 -10 -10 -11 -10 -10 -11 -11 -12 -12 -12 -13 -13 -14 -14 -15 -15 -16 -16 -17 -17 -17
-11 -12 -12 -12 -12 -12 -12 -11 -11 -10 -10 -10 -10 -10 -10 -11 -11 -11 -11 -10 -11 -10 -10 -11 -11 -10 -11 -10 -12 -12 -12 -13 -13 -14 -14 -14 -15 -15 -16 -16 -17 -17 -17 -18
-11 -11 -11 -12 -13 -13 -12 -12 -12 -12 -11 -11 -11 -11 -11 -10 -10 -10 -10 -12 -12 -11 -11 -12 -11 -10 -10 -10 -11 -12 -12 -13 -14 -14 -14 -15 -15 -15 -16 -16 -17 -17 -17 -18
-10 -11 -11 -12 -12 -12 -12 -13 -13 -13 -12 -12 -12 -12 -11 -11 -12 -13 -13 -12 -12 -12 -13 -12 -11 -11 -10 -11 -12 -12 -12 -12 -13 -13 -13 -13 -14 -15 -15 -15 -16 -16 -16 -17
-11 -11 -11 -12 -12 -12 -13 -13 -13 -13 -13 -13 -13 -12 -12 -12 -12 -13 -13 -13 -12 -12 -13 -12 -11 -11 -11 -12 -12 -12 -13 -13 -13 -13 -13 -14 -14 -15 -15 -16 -16 -17 -17 -17
-11 -11 -12 -12 -12 -13 -13 -13 -13 -13 -13 -13 -13 -14 -14 -13 -13 -13 -13 -13 -13 -13 -14 -13 -12 -12 -12 -12 -13 -13 -13 -14 -14 -14 -14 -15 -15 -16 -16 -16 -17 -17 -17 -18
-11 -11 -12 -12 -13 -13 -13 -13 -13 -13 -14 -14 -14 -14 -14 -14 -14 -14 -14 -14 -14 -14 -14 -14 -13 -13 -13 -14 -14 -14 -14 -14 -15 -15 -15 -15 -16 -16 -17 -17 -17 -18 -18 -18

GFSNGP_925_temp_123.txt.gz
Temp
13 15 15 15 14 14 12 13 13 16 17 15 19 20 20 20 20 20 20 21 21 21 21 19 17 16 15 12 12 10 9 11 13 14 14 15 15 15 14 14 14 13 13 13
12 14 15 14 15 15 15 14 15 16 17 20 20 21 20 20 20 20 20 20 21 19 18 17 16 14 13 11 9 9 8 11 12 13 14 15 15 14 14 14 13 12 12 12
11 13 13 13 15 15 16 16 15 15 17 19 19 19 19 19 19 19 19 18 18 16 16 14 13 12 11 10 9 7 8 9 10 13 14 15 14 14 14 13 12 12 11 11
10 11 10 14 16 16 15 15 16 17 18 19 18 17 17 17 18 18 17 16 15 15 14 13 11 9 7 8 8 7 7 7 9 12 14 15 14 13 12 11 11 10 9 9
8 9 11 13 13 14 14 15 17 17 17 17 15 13 16 15 15 14 13 13 12 12 11 10 7 6 6 6 6 6 5 5 6 12 14 15 13 11 11 10 8 7 6 6
10 8 9 11 14 15 15 13 14 13 12 12 10 9 11 8 9 9 9 9 9 9 8 6 4 3 4 4 4 3 2 2 5 6 14 13 10 9 7 7 5 4 3 2
10 9 11 10 13 14 11 10 11 10 7 6 6 7 6 6 7 6 8 7 7 7 5 3 2 1 3 3 2 0 0 1 3 6 11 11 9 8 6 4 2 1 -0 -1
9 9 9 7 12 9 9 11 8 7 5 4 6 6 7 7 5 6 6 6 6 7 5 3 1 -0 0 1 -1 -1 -0 1 2 7 8 8 7 3 3 2 -0 -1 -2 -2
7 7 6 5 5 5 5 7 6 5 5 8 7 7 6 5 5 5 5 6 6 6 5 4 1 -2 -2 -2 -2 -2 -1 0 1 3 4 5 3 1 0 -0 -1 -2 -3 -3
6 6 5 4 4 3 3 3 4 5 7 7 6 6 5 5 5 5 5 4 4 4 4 3 0 -2 -3 -3 -2 -2 -2 -0 -0 1 -0 0 0 0 -0 -1 -2 -3 -3 -4
7 6 6 6 4 3 3 3 4 4 7 6 6 5 5 4 3 3 2 2 1 1 1 1 -0 -3 -4 -4 -3 -3 -2 -2 -1 -1 -1 -3 -3 -2 -2 -2 -2 -3 -4 -5
6 5 4 4 3 5 4 4 5 5 5 5 5 4 3 2 1 -0 -1 -1 -2 -2 -2 -2 -2 -3 -5 -5 -4 -3 -3 -3 -3 -3 -3 -4 -4 -4 -4 -5 -5 -5 -6 -6
4 6 6 5 5 5 5 5 5 5 4 3 3 2 1 -0 -2 -2 -3 -3 -4 -4 -4 -4 -4 -4 -5 -6 -5 -4 -4 -4 -4 -4 -4 -4 -5 -5 -5 -6 -6 -6 -6 -7
5 5 5 5 4 4 5 5 6 4 3 2 1 1 -0 -2 -3 -4 -4 -4 -4 -5 -5 -5 -5 -5 -6 -6 -6 -6 -6 -5 -5 -5 -5 -5 -5 -6 -6 -6 -6 -7 -7 -7
6 6 5 6 6 5 5 4 5 4 3 2 1 -0 -2 -2 -3 -4 -5 -5 -4 -5 -6 -6 -6 -6 -6 -7 -7 -7 -7 -7 -6 -6 -6 -6 -6 -6 -7 -7 -7 -8 -8 -8
6 6 6 5 5 4 4 3 2 2 1 1 -0 -1 -2 -3 -4 -4 -5 -5 -5 -5 -6 -6 -6 -6 -6 -6 -7 -7 -7 -8 -7 -7 -7 -7 -7 -7 -8 -8 -9 -9 -9 -9
4 4 3 3 3 3 3 2 1 -0 -1 -2 -3 -3 -3 -3 -4 -5 -5 -6 -6 -6 -6 -6 -6 -7 -6 -6 -6 -6 -7 -8 -8 -8 -8 -8 -8 -8 -8 -8 -8 -8 -8 -8
2 2 2 1 1 1 1 0 -1 -3 -3 -4 -5 -5 -4 -4 -4 -5 -5 -5 -5 -6 -6 -7 -7 -7 -6 -6 -6 -6 -6 -7 -7 -8 -8 -9 -9 -9 -10 -10 -10 -10 -10 -9
0 0 -0 -1 -2 -2 -2 -3 -5 -5 -5 -6 -5 -5 -6 -6 -6 -6 -5 -5 -5 -5 -7 -7 -7 -7 -7 -7 -6 -6 -7 -7 -8 -8 -8 -9 -9 -10 -10 -10 -10 -10 -10 -10
-1 -2 -3 -3 -4 -6 -6 -7 -7 -6 -7 -7 -6 -5 -5 -6 -6 -6 -6 -7 -7 -7 -7 -7 -7 -7 -7 -7 -7 -7 -7 -7 -8 -8 -8 -9 -10 -10 -10 -10 -10 -10 -11 -11
-4 -4 -5 -7 -7 -7 -8 -8 -8 -8 -8 -8 -7 -7 -7 -7 -8 -7 -4 -5 -8 -7 -7 -8 -7 -7 -7 -7 -7 -7 -7 -7 -8 -8 -9 -9 -9 -10 -10 -10 -10 -11 -11 -12
-5 -6 -7 -8 -8 -8 -8 -9 -9 -9 -8 -8 -8 -8 -7 -6 -7 -8 -8 -7 -8 -8 -8 -8 -9 -8 -7 -7 -7 -7 -7 -8 -8 -8 -9 -9 -9 -10 -10 -11 -11 -12 -12 -12
-5 -6 -6 -8 -8 -8 -8 -8 -9 -9 -9 -9 -9 -8 -7 -7 -7 -6 -6 -9 -9 -9 -9 -10 -10 -9 -8 -7 -7 -7 -8 -8 -8 -9 -9 -10 -10 -10 -11 -11 -12 -12 -12 -13
-5 -6 -7 -8 -8 -6 -7 -7 -8 -8 -9 -8 -9 -10 -8 -7 -8 -8 -10 -11 -11 -11 -11 -11 -10 -9 -8 -8 -8 -8 -8 -9 -9 -9 -10 -10 -11 -11 -12 -12 -12 -13 -13 -14
-7 -7 -6 -7 -6 -6 -7 -7 -8 -8 -8 -8 -8 -9 -9 -9 -9 -9 -10 -10 -10 -10 -11 -11 -10 -9 -9 -9 -9 -9 -9 -10 -10 -10 -11 -11 -11 -12 -12 -13 -13 -13 -14 -15
-6 -6 -6 -7 -8 -8 -8 -8 -8 -8 -8 -8 -9 -9 -9 -10 -10 -10 -11 -11 -10 -10 -11 -11 -10 -10 -10 -11 -11 -11 -11 -11 -11 -11 -11 -12 -12 -12 -13 -14 -14 -14 -14 -15
-6 -8 -6 -6 -7 -8 -9 -9 -9 -9 -9 -9 -9 -9 -10 -10 -11 -10 -10 -10 -11 -11 -11 -11 -11 -11 -11 -11 -11 -12 -12 -12 -12 -12 -12 -13 -13 -14 -14 -14 -15 -15 -16 -17

GFSNGP_925_temp_129.txt.gz
Temp
9 9 10 11 12 13 13 12 10 12 13 13 12 10 9 11 13 15 18 17 16 14 13 13 12 11 10 8 8 8 8 8 8 8 8 8 11 13 14 14 15 15 15 14
8 10 10 11 12 12 13 14 13 14 14 14 13 11 10 11 13 13 13 13 13 13 12 11 10 8 6 6 6 7 7 7 8 7 6 6 8 10 13 14 14 14 14 14
8 10 10 9 10 11 12 13 13 11 9 11 11 12 10 10 10 10 11 10 9 9 9 8 6 5 4 4 5 6 6 5 5 5 5 5 5 9 13 14 14 14 14 14
8 8 8 10 9 8 9 8 8 9 9 9 9 10 8 8 8 8 9 9 8 8 7 6 4 3 3 3 4 4 4 3 2 2 2 3 4 6 10 13 13 13 13 13
5 7 10 7 7 6 8 7 6 8 8 8 8 9 7 7 7 7 7 7 7 8 7 5 4 3 2 2 2 2 2 1 1 1 1 2 3 4 7 11 12 12 11 11
7 7 7 6 7 9 7 7 5 6 7 6 7 7 6 5 6 6 6 6 7 7 6 5 3 1 1 -0 0 -0 -1 -1 -1 -0 1 2 2 3 6 8 10 9 7 7
7 7 6 5 7 8 7 4 5 5 5 5 5 5 4 6 6 6 6 5 4 4 4 3 1 0 -1 -1 -2 -2 -2 -2 -1 -1 0 1 2 4 6 5 5 4 4 2
5 1 4 4 6 4 4 4 4 4 4 4 4 5 6 5 5 5 3 2 2 1 1 1 -1 -1 -2 -3 -3 -4 -3 -2 -2 -1 -1 0 2 5 5 3 1 0 -0 -1
6 6 4 4 4 3 3 3 3 3 3 3 4 4 4 4 3 2 1 0 -0 -1 -1 -2 -2 -3 -3 -4 -4 -4 -4 -2 -2 -2 -1 -1 1 2 2 1 0 -0 -1 -2
5 5 4 4 3 3 3 3 3 5 4 4 3 3 3 2 1 0 -1 -1 -2 -2 -3 -3 -4 -4 -4 -5 -5 -5 -4 -3 -3 -3 -3 -2 -1 1 1 0 0 -0 -2 -3
5 5 5 4 3 3 3 5 4 5 4 3 2 2 1 0 -1 -2 -2 -3 -3 -3 -4 -4 -5 -5 -5 -6 -6 -5 -4 -4 -4 -4 -4 -4 -4 -3 -1 -0 0 -1 -2 -3
4 4 3 3 3 5 4 4 4 4 3 2 1 1 -0 -1 -2 -3 -4 -4 -4 -5 -5 -6 -5 -5 -6 -6 -6 -6 -5 -4 -5 -5 -5 -5 -5 -5 -4 -2 -1 -2 -3 -4
4 5 3 4 6 6 5 4 3 2 2 1 0 -0 -1 -2 -4 -4 -5 -6 -5 -6 -6 -6 -6 -6 -6 -7 -6 -6 -6 -5 -5 -5 -6 -6 -6 -5 -5 -5 -5 -5 -5 -5
6 6 5 6 4 5 4 3 3 1 1 -0 -1 -2 -2 -3 -4 -5 -5 -6 -5 -6 -6 -6 -6 -6 -5 -6 -7 -7 -6 -6 -6 -7 -6 -7 -7 -6 -6 -6 -5 -6 -6 -6
5 5 4 4 4 3 3 1 0 -0 -1 -2 -3 -3 -4 -3 -4 -5 -5 -6 -6 -6 -6 -6 -6 -6 -6 -6 -7 -7 -7 -7 -7 -8 -8 -8 -7 -7 -6 -6 -6 -6 -6 -6
5 4 3 2 1 1 1 -1 -2 -3 -3 -3 -4 -4 -4 -4 -5 -5 -5 -6 -6 -7 -7 -7 -6 -6 -6 -6 -7 -7 -8 -8 -8 -8 -8 -8 -8 -8 -8 -8 -7 -8 -8 -8
2 1 0 -0 -1 -1 -2 -3 -4 -4 -4 -5 -5 -5 -5 -6 -5 -6 -6 -5 -6 -6 -7 -7 -6 -6 -6 -6 -7 -7 -8 -8 -8 -8 -8 -8 -8 -8 -8 -8 -8 -8 -9 -9
0 -1 -1 -2 -3 -3 -4 -5 -6 -6 -6 -7 -7 -7 -6 -6 -7 -6 -6 -6 -6 -6 -7 -7 -6 -6 -7 -7 -7 -8 -8 -9 -9 -9 -9 -9 -9 -9 -9 -9 -9 -9 -9 -10
-1 -2 -3 -4 -5 -5 -6 -7 -7 -7 -8 -8 -8 -8 -7 -7 -7 -7 -7 -7 -7 -7 -7 -7 -6 -6 -7 -7 -7 -8 -8 -9 -9 -9 -9 -9 -10 -10 -10 -10 -10 -10 -10 -10
-3 -4 -5 -6 -6 -7 -7 -8 -8 -8 -8 -8 -8 -8 -8 -7 -7 -7 -7 -8 -8 -7 -8 -7 -7 -7 -7 -7 -7 -8 -9 -9 -9 -9 -10 -10 -10 -10 -10 -11 -11 -11 -11 -11
-5 -5 -6 -7 -8 -8 -8 -8 -8 -9 -8 -8 -9 -9 -9 -7 -7 -7 -8 -8 -8 -8 -8 -8 -7 -7 -7 -7 -8 -8 -9 -9 -9 -10 -10 -10 -11 -11 -11 -11 -11 -12 -12 -12
-6 -6 -7 -7 -7 -7 -7 -8 -8 -8 -8 -9 -9 -9 -9 -8 -8 -9 -9 -10 -9 -9 -9 -8 -7 -7 -7 -8 -8 -8 -9 -9 -10 -10 -10 -11 -11 -11 -11 -12 -12 -13 -13 -13
-6 -6 -6 -6 -7 -7 -7 -8 -7 -8 -8 -8 -9 -9 -9 -8 -8 -9 -10 -10 -10 -10 -9 -9 -8 -8 -8 -8 -8 -9 -9 -9 -10 -10 -11 -11 -11 -12 -12 -12 -13 -13 -13 -14
-5 -6 -7 -7 -6 -7 -7 -8 -7 -8 -8 -8 -8 -9 -9 -9 -9 -10 -10 -10 -10 -10 -9 -9 -9 -8 -8 -8 -9 -9 -10 -10 -10 -10 -11 -11 -12 -12 -12 -13 -13 -13 -14 -14
-5 -5 -6 -6 -7 -8 -8 -8 -8 -8 -8 -8 -9 -9 -9 -10 -10 -10 -10 -10 -10 -10 -10 -10 -9 -9 -9 -9 -10 -10 -10 -11 -11 -11 -11 -12 -12 -12 -13 -13 -13 -14 -14 -14
-6 -6 -7 -8 -8 -8 -8 -9 -9 -9 -9 -9 -9 -9 -9 -10 -10 -10 -10 -11 -11 -11 -11 -10 -11 -11 -11 -11 -11 -11 -11 -11 -11 -12 -12 -12 -13 -13 -13 -14 -14 -14 -14 -15
-7 -6 -7 -8 -8 -9 -9 -9 -9 -10 -10 -10 -9 -10 -10 -10 -10 -10 -10 -11 -11 -11 -11 -11 -11 -11 -11 -11 -11 -11 -12 -12 -12 -12 -13 -13 -13 -14 -14 -14 -14 -15 -15 -15

GFSNGP_925_temp_132.txt.gz
Temp
8 9 9 10 10 10 10 11 9 12 11 10 10 10 9 10 10 11 10 10 10 10 8 7 7 6 5 5 5 6 6 5 5 5 5 6 6 7 8 11 12 14 14 14
7 9 10 10 7 8 8 8 9 10 9 10 11 11 10 9 10 9 9 9 9 9 8 6 5 4 3 3 3 4 4 5 4 3 3 3 4 5 6 8 11 13 14 13
8 9 9 8 6 7 7 7 8 8 8 8 8 9 8 8 8 7 7 7 7 7 6 5 3 3 2 2 2 2 3 2 2 2 2 2 2 3 4 5 9 11 14 13
7 8 7 7 8 8 7 6 6 6 7 7 7 8 7 7 6 6 6 6 6 6 5 3 2 1 1 1 1 1 1 0 0 0 0 1 1 2 3 3 6 10 13 13
5 7 9 8 7 6 6 6 5 5 6 6 6 8 6 6 6 6 6 4 4 3 3 1 0 -0 -0 -0 -1 -1 -1 -2 -1 -1 -0 0 1 1 2 3 4 8 11 12
6 7 6 6 6 7 7 6 4 5 5 5 6 6 5 5 5 4 3 2 1 1 1 -0 -1 -1 -1 -2 -2 -3 -3 -3 -3 -2 -1 -0 0 1 1 3 4 6 7 8
3 4 6 5 5 7 6 3 4 4 4 4 4 4 4 4 3 2 1 0 -1 -1 -1 -2 -2 -3 -3 -3 -3 -4 -4 -4 -3 -2 -1 -1 -0 0 2 3 4 4 4 2
3 -0 3 4 6 5 4 4 3 3 3 3 3 2 4 3 1 1 -1 -1 -2 -2 -2 -3 -3 -4 -4 -4 -5 -5 -5 -4 -3 -3 -2 -2 -2 -0 2 3 2 2 1 0
5 5 4 4 4 3 3 3 3 3 3 3 3 2 2 1 -1 -1 -1 -2 -2 -3 -3 -4 -4 -5 -5 -5 -6 -6 -5 -5 -4 -4 -3 -3 -3 -1 -0 1 1 0 0 -1
4 4 4 3 3 2 3 3 3 4 3 2 2 1 0 0 -1 -2 -3 -3 -3 -4 -4 -5 -5 -5 -5 -6 -6 -6 -6 -5 -5 -4 -4 -4 -4 -3 -2 0 0 0 -0 -1
3 4 4 4 3 2 3 3 3 3 2 1 1 0 -0 -1 -2 -3 -4 -5 -4 -5 -5 -6 -6 -6 -6 -6 -7 -6 -6 -5 -5 -5 -5 -5 -4 -4 -4 -2 -0 0 -0 -1
2 3 3 3 3 4 4 3 2 1 1 1 -0 -1 -1 -2 -3 -4 -4 -6 -5 -6 -6 -6 -7 -6 -6 -6 -7 -7 -6 -6 -6 -6 -6 -6 -5 -5 -5 -4 -2 -0 -0 -0
3 4 3 3 4 4 2 1 1 0 -1 -1 -2 -2 -2 -3 -4 -5 -5 -6 -7 -6 -7 -7 -7 -7 -6 -7 -7 -7 -7 -7 -7 -7 -7 -7 -6 -6 -6 -5 -4 -4 -3 -2
5 5 4 3 2 2 1 0 -0 -1 -2 -3 -3 -3 -4 -4 -5 -5 -6 -6 -6 -6 -7 -7 -7 -7 -6 -7 -7 -7 -7 -8 -8 -8 -8 -7 -7 -6 -6 -6 -6 -5 -5 -5
3 3 2 1 1 0 -1 -2 -2 -3 -3 -3 -4 -4 -5 -5 -5 -6 -6 -6 -6 -6 -7 -7 -7 -7 -6 -7 -7 -8 -8 -8 -8 -8 -8 -8 -8 -8 -8 -7 -6 -6 -6 -6
2 1 1 -1 -1 -1 -3 -3 -4 -4 -4 -5 -5 -6 -6 -6 -6 -6 -6 -6 -7 -8 -7 -7 -7 -7 -7 -7 -7 -8 -8 -8 -8 -8 -8 -8 -8 -8 -8 -8 -8 -8 -8 -8
1 -0 -1 -2 -3 -3 -4 -5 -5 -6 -5 -6 -7 -8 -7 -7 -7 -7 -7 -7 -7 -7 -7 -7 -7 -7 -7 -7 -8 -8 -9 -9 -9 -9 -9 -9 -8 -8 -9 -9 -9 -9 -9 -9
-2 -3 -4 -4 -4 -4 -5 -6 -7 -7 -7 -8 -8 -8 -8 -8 -9 -8 -7 -7 -7 -7 -7 -7 -7 -7 -7 -8 -8 -9 -9 -9 -9 -9 -9 -9 -9 -9 -10 -10 -10 -10 -10 -10
-4 -4 -5 -5 -6 -6 -7 -7 -8 -8 -9 -9 -9 -10 -9 -8 -8 -8 -8 -8 -8 -8 -8 -7 -7 -7 -7 -8 -8 -9 -9 -9 -9 -9 -10 -10 -10 -10 -10 -10 -11 -11 -11 -11
-5 -5 -6 -6 -7 -7 -7 -8 -8 -9 -9 -9 -9 -9 -9 -9 -8 -8 -8 -9 -9 -9 -9 -8 -7 -7 -7 -8 -8 -9 -9 -9 -10 -10 -10 -10 -11 -11 -11 -11 -11 -12 -12 -12
-5 -6 -6 -7 -7 -7 -7 -8 -8 -8 -9 -9 -9 -10 -10 -9 -9 -8 -9 -9 -10 -9 -9 -8 -7 -7 -8 -8 -9 -9 -9 -10 -10 -10 -10 -11 -11 -11 -12 -12 -12 -12 -12 -12
-6 -6 -7 -7 -8 -8 -7 -8 -8 -8 -8 -8 -9 -9 -9 -9 -9 -9 -10 -11 -10 -10 -9 -8 -8 -8 -8 -8 -9 -9 -9 -10 -10 -10 -11 -11 -11 -12 -12 -12 -12 -13 -12 -13
-6 -6 -7 -7 -7 -8 -8 -8 -8 -8 -8 -9 -9 -9 -9 -9 -10 -10 -11 -10 -10 -10 -9 -9 -8 -8 -8 -9 -9 -9 -10 -10 -10 -11 -11 -11 -12 -12 -12 -12 -13 -13 -13 -13
-6 -6 -7 -7 -7 -8 -8 -9 -9 -9 -9 -9 -9 -10 -10 -10 -10 -10 -10 -10 -10 -10 -10 -9 -9 -9 -9 -9 -9 -10 -10 -10 -11 -11 -11 -12 -12 -12 -12 -13 -13 -13 -13 -13
-6 -6 -7 -8 -8 -9 -9 -9 -9 -9 -9 -9 -9 -10 -10 -10 -10 -11 -11 -10 -10 -10 -10 -10 -10 -10 -10 -10 -10 -10 -11 -11 -11 -11 -12 -12 -12 -13 -13 -13 -13 -14 -14 -14
-6 -7 -8 -8 -8 -9 -9 -9 -10 -10 -10 -10 -10 -10 -10 -10 -10 -10 -11 -11 -11 -11 -11 -11 -11 -11 -11 -11 -11 -11 -11 -11 -11 -12 -12 -12 -13 -13 -13 -13 -14 -14 -14 -14
-8 -8 -8 -9 -9 -9 -9 -10 -10 -10 -10 -10 -10 -10 -11 -11 -11 -11 -11 -11 -12 -12 -12 -12 -12 -12 -12 -12 -12 -12 -12 -12 -12 -13 -13 -13 -13 -14 -14 -14 -14 -14 -15 -15

GFSNGP_925_temp_135.txt.gz
Temp
7 8 8 8 7 7 8 8 8 9 7 8 8 9 8 8 8 8 6 6 6 6 6 5 4 3 3 2 2 3 3 4 3 3 3 4 4 5 6 7 7 9 10 13
6 7 8 8 6 7 7 8 8 8 8 8 8 9 8 7 7 7 7 7 7 6 5 4 3 2 2 1 1 1 2 2 1 1 1 2 3 3 3 4 5 6 9 10
7 8 8 7 6 7 7 6 6 7 6 7 7 7 6 6 6 6 6 5 5 4 3 2 1 0 0 0 -0 -0 -0 -0 -0 -0 -0 0 1 1 2 2 3 3 5 8
7 7 7 6 8 7 6 5 5 6 6 6 6 7 5 5 5 4 4 3 3 2 2 0 -1 -1 -1 -1 -2 -2 -2 -2 -2 -2 -1 -1 0 1 1 2 2 3 4 7
4 6 7 8 6 5 5 5 4 5 5 5 6 7 4 4 4 3 1 1 0 -0 -1 -1 -2 -3 -3 -3 -3 -3 -3 -4 -3 -3 -2 -1 -1 -0 0 1 2 3 4 5
5 6 6 5 5 5 6 5 4 4 4 4 4 4 4 2 2 0 -1 -1 -2 -2 -2 -3 -3 -4 -4 -4 -4 -4 -5 -5 -4 -3 -2 -2 -1 -1 -1 -0 1 3 3 5
3 -1 2 4 4 6 5 3 3 3 3 3 3 3 2 1 0 -1 -2 -2 -2 -3 -3 -4 -4 -5 -5 -5 -5 -6 -6 -5 -5 -4 -3 -3 -2 -3 -2 -1 1 2 2 4
1 -2 2 4 5 4 3 3 3 3 3 2 2 1 1 1 -0 -1 -3 -3 -3 -4 -4 -5 -5 -6 -6 -5 -6 -6 -6 -5 -5 -4 -4 -4 -4 -3 -3 -2 0 1 1 2
3 3 3 3 3 3 3 3 3 2 2 2 2 1 -0 -0 -1 -2 -3 -4 -5 -5 -5 -5 -6 -6 -6 -6 -6 -7 -6 -6 -6 -5 -5 -5 -5 -5 -4 -3 -1 0 0 0
2 3 4 2 3 2 2 2 3 3 2 1 1 1 -0 -0 -2 -3 -4 -5 -5 -5 -5 -6 -6 -6 -7 -6 -7 -7 -7 -7 -7 -7 -6 -6 -5 -5 -4 -4 -3 -1 -0 -1
1 4 3 3 2 2 2 3 2 2 1 -0 -1 -0 -1 -2 -3 -4 -4 -5 -6 -6 -6 -6 -7 -7 -7 -7 -7 -7 -7 -7 -7 -7 -7 -6 -6 -5 -5 -5 -4 -3 -1 -0
1 2 2 3 2 3 2 1 0 -0 -1 -1 -2 -2 -2 -2 -4 -5 -5 -6 -6 -7 -7 -7 -7 -7 -7 -7 -7 -8 -7 -7 -8 -8 -8 -7 -7 -6 -5 -5 -4 -4 -2 -1
2 3 3 3 2 1 1 -0 -1 -2 -2 -3 -3 -4 -4 -4 -5 -6 -6 -6 -7 -7 -7 -7 -7 -7 -7 -7 -7 -8 -8 -8 -8 -8 -8 -8 -8 -8 -8 -6 -5 -5 -4 -3
4 4 2 1 -0 -1 -1 -2 -2 -3 -3 -4 -4 -4 -5 -5 -6 -6 -7 -7 -6 -7 -7 -7 -7 -7 -7 -7 -7 -8 -8 -8 -8 -8 -8 -8 -8 -8 -8 -8 -7 -6 -6 -5
1 1 0 -1 -1 -2 -3 -3 -3 -4 -4 -5 -6 -6 -6 -6 -7 -7 -7 -7 -7 -7 -7 -7 -7 -7 -7 -7 -8 -8 -9 -9 -8 -8 -8 -8 -8 -9 -9 -9 -8 -8 -8 -8
1 -0 -1 -1 -2 -3 -4 -4 -5 -5 -5 -6 -6 -7 -8 -7 -7 -7 -7 -7 -8 -8 -8 -7 -7 -7 -7 -8 -8 -8 -8 -9 -9 -9 -9 -9 -9 -9 -9 -9 -9 -9 -9 -9
0 -0 -1 -2 -3 -4 -5 -5 -6 -6 -7 -7 -8 -9 -9 -9 -8 -8 -8 -8 -8 -8 -8 -8 -7 -7 -7 -8 -8 -9 -9 -9 -9 -9 -9 -9 -9 -10 -10 -10 -10 -10 -10 -10
-3 -3 -4 -4 -4 -5 -5 -6 -7 -8 -8 -9 -10 -10 -10 -10 -10 -9 -9 -8 -8 -8 -8 -8 -7 -7 -7 -8 -8 -9 -9 -9 -9 -10 -10 -10 -10 -10 -10 -11 -11 -11 -11 -11
-4 -4 -5 -5 -6 -6 -6 -7 -8 -9 -9 -10 -10 -11 -10 -10 -9 -9 -8 -9 -9 -9 -9 -8 -8 -7 -8 -8 -8 -9 -9 -9 -10 -10 -10 -10 -11 -11 -11 -11 -12 -12 -12 -12
-5 -6 -6 -6 -7 -7 -8 -8 -8 -8 -9 -9 -9 -10 -10 -10 -10 -9 -9 -9 -10 -10 -9 -8 -8 -7 -8 -8 -9 -9 -9 -9 -10 -10 -10 -11 -11 -11 -12 -12 -12 -12 -13 -13
-5 -6 -6 -7 -8 -8 -8 -8 -8 -9 -9 -9 -9 -10 -11 -10 -10 -10 -10 -11 -10 -10 -9 -8 -8 -8 -8 -9 -9 -9 -9 -10 -10 -11 -11 -11 -11 -12 -12 -12 -13 -13 -13 -13
-6 -6 -7 -7 -8 -8 -8 -8 -8 -9 -8 -9 -9 -9 -10 -10 -10 -10 -10 -11 -10 -10 -9 -9 -9 -8 -8 -9 -9 -10 -10 -10 -11 -11 -11 -11 -12 -12 -12 -12 -13 -13 -13 -13
-6 -6 -7 -7 -8 -8 -8 -9 -9 -8 -9 -9 -9 -10 -10 -10 -11 -11 -12 -10 -10 -10 -10 -10 -9 -9 -9 -9 -10 -10 -10 -11 -11 -11 -11 -12 -12 -12 -12 -13 -13 -13 -13 -13
-7 -7 -8 -8 -8 -8 -9 -9 -9 -9 -9 -9 -10 -10 -10 -11 -10 -11 -11 -11 -11 -10 -10 -10 -10 -10 -10 -10 -10 -10 -11 -11 -11 -11 -12 -12 -12 -12 -13 -13 -13 -13 -13 -13
-6 -6 -7 -8 -8 -9 -9 -9 -10 -10 -10 -10 -10 -10 -10 -10 -11 -11 -11 -11 -11 -11 -11 -11 -11 -11 -11 -11 -11 -11 -11 -12 -12 -12 -12 -12 -13 -13 -13 -13 -13 -13 -13 -13
-7 -7 -8 -8 -9 -9 -9 -10 -10 -10 -10 -10 -10 -10 -11 -11 -11 -11 -11 -12 -12 -12 -12 -12 -12 -11 -11 -12 -12 -12 -12 -12 -12 -13 -13 -13 -13 -13 -13 -14 -14 -14 -14 -14
-8 -8 -9 -9 -9 -9 -10 -10 -10 -11 -10 -10 -11 -11 -11 -11 -11 -11 -12 -12 -12 -12 -12 -12 -13 -13 -12 -12 -12 -13 -13 -13 -13 -13 -13 -14 -14 -14 -14 -14 -14 -15 -15 -15

GFSNGP_925_temp_138.txt.gz
Temp
7 7 7 7 7 6 6 7 7 8 8 7 7 7 7 6 7 5 4 4 4 3 2 1 1 0 0 0 -0 -0 1 1 0 0 1 1 1 2 3 3 4 6 7 8
6 7 6 7 6 6 7 7 6 7 7 7 7 8 6 6 6 5 3 4 3 3 2 1 0 -0 -1 -1 -1 -1 -1 -1 -1 -1 -0 -1 -0 0 1 2 2 3 3 5
7 7 7 6 6 6 6 5 5 6 6 6 6 6 4 4 4 3 3 2 1 1 1 0 -1 -2 -2 -2 -2 -2 -2 -3 -3 -2 -2 -2 -1 -0 0 1 1 2 3 3
6 7 6 5 7 6 6 5 5 6 6 5 5 4 3 2 2 1 1 -0 -0 -1 -2 -2 -3 -3 -4 -3 -3 -3 -3 -4 -4 -4 -3 -2 -1 -1 -1 -0 -0 1 2 3
4 5 7 6 6 5 5 5 4 4 5 5 4 4 2 2 1 -0 -1 -1 -2 -2 -3 -3 -4 -4 -5 -4 -4 -4 -5 -5 -5 -4 -4 -3 -3 -2 -2 -2 -1 0 1 2
4 5 6 5 4 5 5 5 4 4 4 3 3 3 3 0 -0 -1 -2 -3 -3 -3 -4 -4 -5 -5 -5 -5 -5 -5 -5 -5 -5 -5 -4 -4 -3 -3 -3 -3 -2 -1 1 2
4 -2 2 4 3 5 5 3 3 3 3 2 2 2 0 -0 0 -1 -2 -3 -4 -4 -5 -5 -5 -6 -6 -6 -5 -6 -6 -6 -5 -6 -5 -5 -4 -4 -4 -4 -3 -1 0 1
0 -2 2 3 4 4 2 3 3 2 2 1 1 2 1 0 -0 -2 -3 -4 -5 -5 -5 -5 -6 -6 -6 -6 -6 -6 -6 -6 -6 -6 -6 -6 -6 -5 -5 -4 -3 -2 -1 -0
2 2 2 4 3 2 2 2 3 2 1 1 1 1 -0 -1 -2 -3 -4 -5 -5 -6 -6 -6 -6 -7 -7 -7 -7 -7 -7 -7 -7 -7 -7 -7 -7 -6 -5 -5 -4 -4 -3 -1
2 3 3 2 3 1 2 1 2 2 1 0 -1 -1 -1 -2 -3 -4 -5 -5 -6 -6 -6 -6 -7 -7 -7 -7 -7 -7 -7 -7 -7 -8 -8 -7 -7 -7 -7 -6 -5 -4 -4 -3
2 3 3 3 3 1 2 1 1 0 -1 -2 -3 -3 -3 -4 -3 -5 -5 -6 -6 -7 -6 -7 -8 -7 -7 -7 -8 -8 -8 -8 -8 -8 -8 -8 -7 -7 -7 -6 -6 -5 -4 -4
1 1 -0 1 1 2 1 -0 -1 -2 -2 -3 -4 -4 -4 -4 -5 -5 -6 -7 -7 -7 -7 -8 -8 -8 -8 -8 -8 -8 -8 -9 -9 -9 -9 -8 -8 -8 -5 -6 -6 -6 -4 -3
2 2 2 1 -0 0 -1 -2 -2 -3 -4 -4 -4 -5 -5 -5 -6 -7 -8 -8 -8 -8 -8 -8 -8 -8 -8 -8 -8 -9 -9 -9 -9 -9 -9 -9 -9 -9 -9 -6 -6 -8 -7 -5
3 2 1 0 -1 -2 -2 -3 -3 -4 -4 -5 -6 -6 -7 -7 -7 -7 -8 -8 -8 -7 -7 -8 -7 -7 -8 -8 -8 -8 -8 -8 -9 -8 -9 -8 -9 -9 -9 -9 -9 -9 -7 -8
1 0 -1 -2 -3 -4 -4 -4 -4 -5 -5 -6 -7 -7 -8 -8 -8 -8 -8 -8 -8 -7 -8 -8 -8 -8 -8 -8 -8 -8 -9 -9 -9 -9 -9 -9 -9 -9 -9 -9 -10 -10 -9 -8
-0 -1 -1 -2 -3 -4 -5 -5 -5 -6 -6 -7 -8 -8 -9 -9 -9 -8 -9 -9 -9 -9 -9 -9 -8 -8 -8 -8 -8 -8 -9 -9 -9 -9 -9 -9 -10 -10 -10 -10 -10 -10 -10 -10
-0 -1 -1 -2 -3 -4 -5 -6 -6 -7 -7 -8 -9 -10 -11 -11 -10 -9 -9 -8 -8 -8 -9 -9 -9 -8 -8 -8 -8 -9 -9 -9 -9 -9 -10 -10 -10 -10 -11 -11 -11 -11 -11 -11
-3 -4 -4 -4 -4 -5 -5 -6 -7 -8 -9 -10 -10 -10 -11 -11 -11 -10 -9 -9 -9 -9 -9 -9 -8 -8 -8 -8 -9 -9 -9 -9 -10 -10 -10 -10 -11 -11 -11 -12 -12 -12 -12 -12
-4 -4 -5 -5 -6 -6 -6 -7 -8 -9 -9 -10 -10 -11 -11 -11 -10 -10 -10 -10 -11 -11 -10 -9 -8 -8 -8 -9 -9 -9 -9 -10 -10 -10 -10 -11 -11 -12 -12 -12 -13 -13 -13 -13
-5 -6 -6 -6 -7 -7 -8 -8 -8 -9 -9 -9 -10 -10 -11 -11 -10 -10 -10 -11 -11 -11 -10 -9 -9 -8 -9 -9 -9 -9 -10 -10 -10 -11 -11 -11 -12 -12 -12 -12 -13 -13 -13 -13
-5 -6 -7 -7 -8 -8 -8 -8 -8 -9 -9 -10 -10 -10 -11 -10 -10 -10 -11 -11 -11 -10 -10 -9 -9 -9 -9 -9 -10 -10 -10 -11 -11 -11 -11 -12 -12 -12 -13 -13 -13 -13 -13 -13
-7 -7 -8 -8 -8 -8 -8 -9 -9 -9 -9 -9 -10 -10 -10 -10 -11 -10 -11 -12 -11 -11 -10 -10 -10 -10 -10 -10 -10 -10 -11 -11 -11 -11 -12 -12 -12 -13 -13 -13 -13 -13 -13 -13
-6 -7 -7 -8 -8 -9 -9 -9 -9 -9 -10 -10 -10 -10 -11 -11 -11 -12 -12 -11 -11 -11 -11 -11 -11 -10 -10 -10 -11 -11 -11 -11 -12 -12 -12 -12 -13 -13 -13 -13 -13 -13 -13 -13
-7 -7 -7 -8 -8 -9 -9 -10 -10 -10 -10 -10 -10 -11 -11 -11 -10 -11 -11 -12 -11 -11 -11 -12 -11 -11 -11 -11 -11 -12 -12 -12 -12 -12 -13 -13 -13 -13 -13 -13 -13 -13 -13 -13
-7 -7 -8 -8 -9 -9 -10 -10 -10 -10 -10 -10 -10 -11 -11 -11 -12 -12 -12 -12 -12 -12 -12 -12 -12 -12 -12 -12 -12 -12 -13 -13 -13 -13 -13 -13 -14 -14 -14 -14 -14 -14 -14 -14
-7 -8 -8 -9 -9 -10 -10 -10 -10 -11 -10 -10 -11 -11 -11 -12 -12 -12 -12 -12 -12 -12 -13 -13 -13 -13 -13 -13 -13 -13 -13 -13 -13 -14 -14 -14 -14 -14 -14 -14 -14 -14 -14 -14
-9 -9 -9 -9 -10 -10 -10 -10 -10 -10 -11 -11 -11 -11 -12 -12 -12 -12 -12 -13 -13 -13 -13 -13 -13 -13 -13 -13 -14 -14 -14 -14 -14 -14 -14 -14 -14 -15 -15 -15 -15 -15 -15 -15

GFSNGP_925_temp_141.txt.gz
Temp
8 8 8 8 8 8 7 8 8 10 8 7 7 7 6 6 5 5 4 3 2 1 1 0 -2 -2 -3 -2 -2 -2 -1 -0 -0 -0 -0 -0 0 1 2 2 3 3 3 4
7 8 8 7 7 7 8 8 7 8 8 6 8 7 5 5 4 3 3 2 2 1 -0 -1 -2 -3 -3 -2 -2 -2 -2 -2 -2 -2 -1 -1 -0 0 1 1 1 1 3 3
8 8 8 7 7 7 7 5 5 7 6 7 6 6 3 3 3 2 1 1 1 -0 -1 -2 -3 -3 -4 -4 -3 -3 -3 -3 -3 -2 -2 -2 -1 -1 -0 -0 -0 0 1 2
7 8 7 7 7 7 6 6 5 5 6 6 5 6 3 2 2 1 0 -0 -0 -1 -2 -3 -3 -4 -4 -4 -4 -4 -4 -4 -4 -3 -3 -2 -2 -2 -2 -2 -1 -1 0 1
6 7 8 6 7 6 5 5 4 4 5 5 5 5 2 2 1 0 -0 -1 -2 -3 -3 -3 -4 -5 -5 -4 -4 -4 -4 -5 -4 -4 -4 -3 -3 -3 -3 -3 -3 -2 -1 0
6 6 7 7 6 5 5 6 4 4 4 4 4 4 3 1 1 -0 -1 -2 -3 -4 -3 -4 -4 -5 -4 -4 -4 -5 -5 -5 -5 -5 -5 -4 -4 -4 -4 -4 -3 -3 -2 -1
5 4 6 5 5 5 6 5 4 3 3 2 2 2 2 1 1 -1 -2 -3 -4 -4 -4 -4 -5 -5 -5 -5 -5 -5 -6 -5 -5 -5 -5 -5 -5 -5 -5 -4 -4 -4 -3 -2
3 3 6 4 5 6 4 4 3 3 2 2 2 2 1 0 -0 -2 -3 -3 -4 -4 -4 -5 -5 -6 -5 -5 -6 -6 -6 -5 -6 -6 -6 -6 -6 -5 -5 -4 -4 -4 -4 -3
5 7 3 5 3 3 2 2 2 2 2 1 1 0 0 -0 -1 -2 -3 -4 -4 -5 -5 -5 -6 -6 -6 -6 -6 -7 -6 -6 -7 -7 -7 -7 -7 -6 -6 -6 -5 -4 -4 -4
4 4 4 3 3 3 2 2 2 2 1 -0 -1 -1 -1 -2 -3 -3 -4 -4 -5 -5 -5 -5 -6 -6 -6 -7 -7 -7 -7 -8 -8 -8 -7 -7 -7 -7 -7 -6 -5 -4 -5 -4
4 4 4 2 3 3 2 1 1 0 -1 -2 -2 -2 -2 -2 -3 -4 -4 -5 -5 -5 -6 -6 -6 -6 -7 -7 -7 -7 -7 -8 -8 -8 -8 -7 -7 -7 -7 -7 -6 -6 -5 -5
6 3 3 3 2 2 1 0 -0 -1 -2 -3 -3 -3 -4 -4 -4 -5 -6 -6 -6 -6 -6 -7 -7 -7 -7 -8 -8 -8 -8 -7 -8 -8 -8 -8 -7 -7 -7 -7 -7 -7 -7 -6
5 3 3 2 1 1 0 -1 -2 -3 -3 -4 -4 -5 -6 -6 -6 -7 -8 -8 -8 -8 -8 -8 -8 -8 -8 -8 -9 -9 -9 -8 -8 -8 -8 -8 -8 -8 -7 -7 -7 -7 -8 -8
4 3 2 1 0 -2 -2 -3 -3 -4 -4 -5 -6 -6 -7 -7 -8 -9 -9 -10 -9 -9 -9 -9 -9 -8 -8 -9 -9 -9 -9 -9 -9 -9 -9 -8 -8 -8 -8 -8 -8 -8 -8 -9
1 1 1 -1 -2 -3 -4 -3 -3 -4 -5 -6 -7 -7 -8 -9 -9 -10 -9 -9 -8 -9 -9 -9 -9 -9 -8 -9 -9 -9 -9 -9 -9 -9 -9 -9 -9 -9 -9 -9 -9 -9 -9 -9
0 0 -0 -1 -2 -3 -4 -4 -4 -5 -6 -7 -7 -8 -9 -9 -9 -10 -9 -10 -10 -10 -10 -10 -9 -9 -8 -9 -9 -9 -9 -9 -9 -9 -9 -9 -9 -9 -9 -9 -9 -10 -10 -11
1 0 -1 -2 -2 -4 -5 -5 -6 -6 -7 -8 -9 -10 -10 -10 -10 -10 -10 -10 -10 -10 -10 -10 -10 -9 -9 -9 -9 -9 -9 -9 -10 -9 -9 -10 -10 -10 -10 -10 -10 -11 -11 -12
-2 -2 -3 -3 -3 -4 -5 -6 -7 -8 -9 -10 -10 -10 -11 -11 -12 -12 -11 -10 -10 -10 -10 -10 -9 -9 -9 -9 -9 -9 -9 -9 -9 -10 -10 -10 -11 -11 -11 -11 -11 -11 -11 -12
-3 -4 -4 -5 -5 -5 -6 -7 -8 -9 -10 -10 -10 -11 -12 -11 -11 -11 -11 -11 -11 -10 -11 -10 -10 -9 -9 -10 -10 -10 -10 -10 -10 -10 -10 -11 -11 -11 -11 -11 -12 -12 -12 -12
-5 -5 -5 -6 -7 -7 -8 -9 -9 -9 -10 -10 -10 -10 -11 -11 -11 -11 -11 -11 -11 -11 -11 -11 -11 -10 -10 -10 -10 -10 -10 -10 -10 -11 -11 -11 -11 -11 -12 -12 -12 -12 -13 -13
-5 -6 -7 -7 -9 -9 -9 -9 -9 -9 -10 -10 -11 -11 -12 -11 -11 -11 -11 -10 -11 -12 -11 -11 -11 -11 -10 -10 -10 -11 -11 -11 -11 -11 -11 -12 -12 -12 -12 -12 -13 -13 -14 -14
-7 -8 -9 -8 -8 -9 -9 -10 -10 -10 -10 -10 -11 -11 -11 -11 -11 -11 -12 -12 -12 -12 -12 -12 -12 -11 -11 -11 -11 -12 -12 -12 -12 -12 -12 -12 -12 -12 -12 -13 -13 -14 -14 -14
-8 -8 -9 -9 -9 -9 -10 -10 -10 -10 -10 -11 -11 -11 -12 -12 -12 -11 -11 -12 -13 -12 -13 -13 -12 -12 -11 -12 -13 -13 -13 -13 -13 -13 -13 -13 -13 -13 -13 -14 -14 -14 -14 -14
-8 -8 -8 -9 -9 -9 -10 -10 -10 -11 -11 -11 -11 -12 -12 -12 -12 -12 -12 -12 -12 -12 -13 -13 -12 -12 -12 -13 -13 -14 -14 -14 -14 -14 -14 -14 -15 -15 -15 -14 -14 -14 -14 -14
-7 -8 -9 -9 -9 -10 -10 -10 -10 -11 -11 -11 -11 -11 -12 -12 -13 -13 -13 -13 -13 -13 -13 -13 -13 -13 -14 -14 -14 -14 -15 -15 -15 -15 -15 -15 -15 -15 -15 -15 -15 -15 -14 -14
-8 -9 -9 -9 -10 -10 -10 -10 -11 -11 -11 -11 -11 -12 -12 -12 -12 -12 -13 -13 -13 -13 -14 -14 -14 -14 -15 -15 -15 -15 -15 -15 -15 -15 -15 -15 -15 -15 -15 -15 -15 -15 -15 -15
-9 -9 -10 -10 -10 -10 -10 -10 -11 -11 -11 -11 -12 -12 -12 -12 -13 -13 -13 -13 -14 -14 -14 -14 -14 -14 -15 -15 -15 -15 -16 -16 -15 -15 -15 -15 -15 -16 -16 -16 -16 -16 -16 -16

GFSNGP_925_temp_144.txt.gz
Temp
12 12 12 12 12 12 11 12 11 12 12 12 9 8 7 7 7 7 7 6 5 4 3 1 0 -1 -2 -3 -2 -3 -1 0 0 0 2 2 3 3 4 4 5 5 6 7
10 11 11 11 11 11 11 11 12 12 12 9 11 10 7 7 6 6 5 5 4 4 2 1 0 -1 -2 -3 -3 -2 -1 -0 -0 0 1 1 2 2 3 3 3 4 4 5
11 11 11 10 11 11 11 9 8 9 10 10 9 8 5 5 5 4 4 4 3 3 2 1 -0 -2 -2 -3 -3 -3 -2 -2 -1 -1 -1 -0 1 1 1 1 1 2 2 3
11 11 10 9 11 10 9 9 8 8 8 8 8 8 5 5 4 4 3 3 3 2 1 0 -0 -2 -3 -2 -2 -3 -3 -3 -3 -2 -2 -2 -1 -0 0 -0 -0 1 1 2
10 11 11 9 9 9 8 9 7 7 8 8 8 8 4 4 4 3 3 2 1 1 0 0 -1 -2 -2 -2 -2 -2 -3 -3 -3 -2 -2 -2 -2 -2 -1 -1 -0 -1 0 0
9 9 10 10 8 8 8 8 6 7 7 6 6 7 6 4 4 3 2 1 0 0 -0 -0 -1 -2 -1 -2 -2 -3 -3 -3 -3 -3 -2 -2 -2 -2 -1 -1 -1 -1 -1 -1
10 9 10 9 8 8 8 7 6 5 5 4 3 3 3 3 3 2 1 1 -0 -0 -0 -1 -2 -2 -1 -2 -3 -4 -4 -3 -3 -3 -3 -3 -2 -2 -2 -1 -1 -1 -2 -1
8 8 8 9 8 8 6 6 5 4 4 3 3 3 4 3 3 2 1 0 -0 -0 -1 -1 -2 -2 -2 -2 -4 -4 -4 -3 -3 -3 -3 -3 -3 -3 -3 -3 -2 -2 -2 -2
9 9 7 7 7 5 5 5 5 4 4 4 3 3 3 3 2 1 0 -0 -1 -1 -1 -1 -2 -3 -3 -3 -4 -5 -4 -5 -5 -5 -4 -4 -4 -4 -4 -4 -4 -3 -3 -2
7 7 8 6 5 5 5 4 4 4 4 3 2 2 2 2 2 1 0 -1 -2 -1 -1 -2 -3 -3 -3 -4 -5 -5 -5 -5 -5 -5 -5 -5 -5 -5 -5 -5 -5 -4 -4 -4
6 6 7 5 6 5 5 4 4 3 2 1 1 2 1 1 1 -0 -1 -2 -2 -2 -2 -3 -3 -4 -4 -5 -5 -5 -5 -5 -5 -5 -5 -5 -5 -5 -5 -5 -7 -6 -6 -6
9 6 6 6 4 5 4 4 3 2 2 1 -0 0 -1 -1 -2 -3 -4 -4 -4 -4 -4 -5 -5 -5 -5 -6 -6 -6 -5 -5 -5 -5 -5 -5 -5 -5 -5 -6 -6 -7 -7 -7
8 7 6 5 5 4 3 2 1 1 0 0 -1 -2 -2 -3 -4 -6 -6 -6 -7 -7 -7 -7 -6 -6 -6 -7 -7 -7 -7 -6 -6 -6 -6 -6 -6 -6 -6 -5 -5 -6 -7 -8
8 6 5 5 4 2 2 0 -1 -1 -1 -2 -3 -3 -4 -4 -6 -7 -8 -9 -9 -8 -8 -9 -9 -8 -8 -8 -8 -8 -7 -7 -7 -7 -7 -7 -7 -6 -6 -6 -6 -6 -7 -8
6 6 6 4 2 1 1 0 0 -0 -2 -3 -4 -5 -6 -6 -7 -8 -9 -9 -10 -8 -9 -10 -9 -8 -8 -8 -8 -7 -7 -7 -7 -7 -7 -7 -7 -7 -7 -7 -7 -7 -7 -8
5 4 4 3 2 1 0 -0 -1 -2 -3 -4 -5 -6 -6 -6 -7 -8 -9 -10 -10 -9 -10 -9 -8 -9 -8 -8 -8 -7 -7 -7 -7 -7 -7 -7 -7 -7 -7 -7 -7 -8 -8 -9
4 3 2 2 1 -0 -1 -2 -3 -3 -4 -5 -6 -8 -8 -8 -7 -9 -10 -10 -10 -10 -9 -9 -9 -8 -8 -8 -8 -7 -7 -7 -8 -7 -7 -8 -8 -8 -8 -8 -8 -8 -9 -10
3 2 2 2 1 -1 -2 -3 -4 -5 -6 -7 -9 -10 -10 -10 -10 -10 -10 -10 -9 -8 -9 -9 -9 -9 -8 -9 -9 -8 -8 -8 -7 -8 -8 -8 -8 -8 -8 -8 -8 -9 -9 -10
0 -0 -1 -1 -2 -2 -3 -4 -6 -7 -9 -10 -10 -10 -11 -11 -11 -11 -11 -10 -9 -8 -9 -9 -10 -9 -8 -9 -9 -8 -8 -8 -8 -8 -8 -8 -8 -8 -9 -9 -9 -9 -9 -10
-1 -2 -3 -4 -4 -4 -5 -7 -8 -8 -10 -10 -10 -10 -10 -10 -11 -11 -9 -8 -10 -10 -10 -10 -9 -9 -9 -9 -9 -9 -9 -9 -9 -8 -9 -9 -9 -9 -9 -9 -9 -9 -10 -10
-2 -3 -4 -5 -7 -9 -9 -10 -9 -9 -11 -10 -10 -11 -11 -10 -11 -10 -9 -8 -10 -11 -10 -10 -10 -10 -9 -10 -9 -9 -9 -9 -9 -9 -9 -9 -9 -9 -9 -9 -10 -10 -10 -11
-5 -6 -7 -8 -8 -9 -10 -10 -10 -11 -11 -11 -11 -12 -10 -9 -9 -9 -11 -11 -10 -12 -11 -10 -11 -12 -12 -11 -10 -10 -10 -10 -10 -10 -10 -10 -10 -10 -10 -10 -10 -11 -11 -12
-6 -7 -8 -9 -8 -8 -10 -10 -11 -11 -11 -11 -11 -11 -10 -10 -10 -9 -9 -11 -11 -12 -11 -12 -13 -13 -12 -11 -11 -11 -11 -11 -11 -11 -11 -11 -11 -11 -11 -11 -11 -11 -12 -13
-7 -7 -7 -9 -9 -8 -8 -9 -10 -11 -11 -11 -12 -12 -11 -10 -9 -10 -11 -11 -12 -12 -12 -13 -14 -13 -12 -12 -12 -12 -12 -12 -12 -12 -12 -12 -12 -12 -12 -12 -12 -12 -13 -13
-7 -7 -8 -8 -7 -7 -8 -9 -10 -9 -10 -9 -10 -10 -11 -11 -12 -12 -12 -12 -12 -12 -12 -13 -14 -13 -12 -12 -13 -13 -13 -13 -14 -13 -13 -13 -13 -13 -13 -13 -14 -14 -14 -14
-6 -6 -6 -8 -7 -7 -8 -8 -8 -8 -8 -8 -9 -10 -11 -11 -11 -11 -12 -12 -12 -13 -13 -13 -13 -13 -13 -13 -13 -13 -13 -14 -14 -14 -14 -14 -14 -15 -15 -15 -15 -15 -15 -16
-7 -7 -7 -8 -8 -8 -8 -8 -8 -8 -9 -10 -9 -11 -11 -12 -12 -12 -12 -12 -13 -13 -13 -13 -13 -14 -14 -14 -14 -14 -14 -14 -15 -15 -15 -15 -15 -15 -16 -16 -16 -16 -16 -17

GFSNGP_925_temp_150.txt.gz
Temp
16 17 16 17 16 16 16 15 14 15 15 14 13 13 12 12 11 10 9 9 9 8 7 6 5 4 3 1 1 0 -1 -2 -2 -1 -1 -1 -1 -1 -0 0 1 2 4 5
13 16 16 15 16 16 16 16 16 16 15 14 14 13 12 10 9 9 9 9 8 7 6 5 4 4 3 2 1 1 0 -1 -2 -2 -0 -0 1 1 0 -0 1 1 2 4
12 15 15 13 15 15 16 16 14 12 14 14 12 12 10 9 9 9 8 8 7 7 6 5 4 3 2 2 2 1 -0 -1 -1 -1 -2 0 0 0 1 1 1 1 1 2
12 14 11 15 16 16 15 15 15 14 14 13 12 12 11 9 8 8 7 7 7 6 5 4 4 3 2 2 2 1 -0 -1 -1 -1 -1 -0 -0 -0 0 0 1 1 1 1
11 12 14 14 14 14 13 13 15 14 12 12 12 11 9 9 8 7 7 7 6 5 4 4 4 3 2 2 1 -0 -1 -1 -1 -1 -1 -1 -1 -1 -0 -0 -0 -0 -1 -1
12 11 11 13 14 14 13 10 14 12 11 10 10 9 6 8 7 6 6 6 5 5 4 4 3 2 2 2 0 -1 -2 -2 -2 -2 -2 -1 -2 -2 -2 -1 -2 -2 -2 -1
11 11 13 13 13 13 10 9 10 9 9 7 6 6 7 8 7 7 6 6 5 4 4 3 2 2 1 1 -1 -2 -3 -3 -3 -3 -3 -3 -3 -3 -3 -3 -3 -3 -3 -3
10 10 11 14 12 11 9 9 9 8 7 6 6 7 8 7 7 7 6 5 4 3 3 2 2 1 0 -0 -2 -3 -3 -4 -4 -4 -4 -4 -4 -4 -3 -4 -4 -4 -4 -4
11 11 13 13 11 10 10 9 7 7 6 7 8 8 7 6 6 6 5 4 3 2 2 1 0 -0 -1 -2 -3 -4 -4 -4 -4 -4 -4 -4 -4 -4 -4 -4 -4 -5 -5 -5
10 11 12 10 10 10 9 8 8 8 8 8 7 6 6 5 5 4 3 2 1 0 -0 -1 -2 -2 -2 -4 -5 -5 -5 -5 -5 -5 -4 -4 -4 -4 -4 -4 -5 -5 -5 -6
9 10 11 10 10 8 7 7 7 8 7 6 5 5 4 4 3 1 -1 -1 -2 -2 -3 -3 -3 -4 -4 -5 -6 -6 -6 -6 -5 -5 -5 -5 -5 -5 -5 -5 -5 -5 -6 -6
10 9 8 10 8 8 6 6 7 7 7 6 5 4 3 2 0 -3 -3 -4 -4 -5 -5 -5 -5 -5 -6 -7 -7 -6 -6 -6 -5 -6 -6 -5 -5 -5 -5 -5 -5 -5 -6 -6
11 11 10 9 8 7 6 7 6 6 5 4 3 2 1 -0 -4 -5 -5 -6 -7 -7 -7 -7 -7 -7 -7 -7 -7 -7 -7 -6 -6 -6 -6 -5 -5 -6 -6 -5 -5 -6 -6 -7
11 10 8 9 8 8 7 5 4 4 3 2 1 -0 -1 -2 -5 -6 -7 -8 -8 -8 -8 -8 -8 -7 -8 -8 -7 -7 -7 -6 -6 -6 -6 -6 -6 -6 -6 -6 -6 -6 -6 -7
10 9 9 8 7 7 6 5 5 4 2 1 -0 -2 -3 -4 -5 -7 -8 -8 -8 -7 -8 -8 -8 -8 -8 -8 -7 -7 -7 -6 -6 -6 -6 -6 -6 -6 -6 -6 -6 -7 -7 -8
9 9 8 7 7 6 5 4 4 3 1 -0 -2 -4 -4 -5 -5 -8 -8 -9 -9 -8 -8 -8 -8 -8 -8 -8 -8 -8 -7 -6 -7 -6 -6 -6 -6 -6 -7 -7 -7 -7 -7 -8
7 7 7 6 5 4 4 2 1 0 -1 -2 -5 -7 -7 -8 -7 -8 -9 -8 -8 -8 -8 -9 -9 -8 -8 -8 -8 -8 -7 -7 -7 -7 -6 -7 -7 -7 -7 -7 -7 -7 -8 -9
7 7 6 5 4 3 1 -0 -1 -2 -4 -6 -8 -8 -8 -9 -9 -9 -9 -8 -8 -8 -8 -9 -9 -9 -8 -9 -8 -8 -8 -7 -7 -7 -7 -7 -7 -7 -7 -7 -8 -8 -8 -9
4 3 2 1 1 0 -0 -1 -3 -6 -7 -8 -8 -8 -8 -8 -9 -9 -9 -9 -8 -8 -9 -9 -9 -9 -9 -9 -9 -9 -8 -8 -8 -8 -8 -8 -7 -7 -7 -8 -8 -8 -9 -9
2 1 0 -1 -1 -1 -3 -5 -5 -8 -8 -8 -8 -9 -9 -9 -8 -8 -8 -8 -9 -10 -9 -9 -10 -10 -11 -10 -10 -9 -9 -9 -9 -9 -9 -9 -8 -8 -8 -8 -8 -9 -9 -10
1 -0 -2 -4 -6 -7 -7 -7 -7 -8 -9 -9 -9 -10 -10 -9 -8 -8 -7 -7 -9 -10 -10 -10 -10 -11 -11 -11 -10 -10 -10 -10 -10 -10 -10 -10 -9 -9 -9 -10 -9 -10 -10 -11
-3 -5 -6 -7 -7 -8 -8 -8 -9 -9 -9 -9 -9 -9 -9 -7 -7 -7 -9 -9 -9 -10 -10 -10 -11 -12 -12 -11 -10 -10 -10 -11 -11 -11 -11 -11 -10 -10 -10 -11 -10 -10 -11 -12
-5 -6 -6 -7 -7 -7 -8 -9 -9 -9 -9 -9 -10 -10 -9 -8 -8 -8 -8 -9 -10 -11 -11 -11 -12 -12 -11 -11 -11 -11 -11 -11 -12 -12 -12 -11 -12 -12 -12 -12 -12 -12 -12 -13
-5 -6 -6 -7 -7 -7 -7 -8 -8 -8 -9 -9 -9 -9 -9 -8 -9 -9 -9 -10 -10 -11 -11 -11 -12 -12 -12 -11 -11 -12 -12 -12 -13 -12 -12 -12 -12 -12 -12 -13 -13 -13 -13 -14
-4 -5 -6 -7 -6 -5 -6 -7 -7 -7 -8 -8 -8 -8 -9 -9 -9 -10 -10 -10 -10 -11 -11 -11 -12 -12 -12 -12 -12 -12 -12 -12 -13 -13 -13 -13 -13 -13 -13 -13 -14 -14 -14 -15
-5 -5 -5 -6 -5 -4 -5 -5 -5 -6 -6 -6 -7 -8 -9 -9 -10 -10 -10 -10 -11 -11 -11 -11 -12 -12 -12 -12 -12 -13 -13 -13 -13 -13 -14 -14 -14 -14 -14 -14 -14 -14 -15 -16
-4 -5 -5 -5 -5 -5 -5 -6 -6 -6 -7 -7 -8 -8 -9 -9 -10 -10 -10 -11 -11 -11 -11 -12 -12 -12 -13 -13 -13 -13 -13 -13 -14 -14 -14 -14 -14 -14 -15 -15 -15 -15 -15 -16

GFSNGP_925_temp_156.txt.gz
Temp
13 14 14 14 13 13 12 11 10 11 12 11 10 9 8 7 7 7 7 6 5 4 3 4 3 2 2 1 0 -1 -1 -2 -2 -2 -2 -2 -2 -3 -3 -3 -2 -2 -2 -1
11 12 13 12 13 12 13 13 12 12 11 10 9 8 7 7 7 6 6 6 5 4 4 3 2 2 1 1 -1 -2 -2 -3 -3 -3 -3 -3 -3 -3 -3 -3 -3 -3 -3 -2
11 12 13 11 11 13 13 13 12 10 10 9 8 8 6 6 6 5 5 5 4 3 3 2 2 1 1 -1 -2 -3 -3 -3 -3 -3 -3 -3 -3 -3 -3 -3 -3 -4 -3 -3
9 11 10 12 13 14 12 12 12 10 10 9 7 5 5 4 4 4 4 4 3 3 2 2 1 0 -0 -2 -3 -3 -4 -4 -4 -4 -4 -4 -4 -4 -4 -4 -4 -4 -4 -4
7 9 10 12 13 12 12 9 9 9 8 7 6 5 4 5 4 5 4 3 2 2 1 0 -1 -1 -2 -3 -4 -4 -5 -5 -5 -5 -4 -4 -4 -5 -4 -4 -4 -5 -5 -5
7 8 7 9 11 12 11 6 7 8 7 7 6 4 2 5 5 3 2 1 1 0 -1 -2 -2 -2 -4 -5 -5 -5 -6 -5 -5 -5 -5 -5 -5 -5 -5 -4 -5 -5 -5 -6
6 3 7 10 11 12 10 7 6 5 4 4 2 2 3 3 2 1 0 -0 -1 -2 -3 -4 -4 -4 -5 -6 -6 -6 -6 -6 -6 -6 -5 -5 -5 -5 -6 -5 -5 -6 -6 -6
5 3 6 10 11 10 6 5 4 4 3 3 3 3 3 2 0 -1 -2 -2 -3 -3 -4 -5 -5 -5 -6 -7 -7 -7 -7 -7 -6 -6 -6 -6 -6 -6 -6 -6 -6 -6 -6 -6
6 5 7 7 8 6 6 4 4 4 4 4 3 2 2 -1 -2 -2 -3 -4 -5 -5 -6 -6 -6 -7 -7 -7 -7 -7 -7 -7 -7 -6 -6 -6 -6 -7 -6 -6 -6 -6 -6 -7
6 6 6 5 5 5 5 4 4 4 4 3 2 1 -1 -2 -3 -4 -5 -6 -6 -7 -7 -7 -7 -7 -7 -8 -7 -7 -7 -7 -7 -7 -7 -6 -6 -6 -7 -7 -6 -6 -7 -8
5 6 6 6 5 4 4 4 4 4 3 2 1 -1 -3 -4 -5 -5 -6 -7 -7 -8 -7 -8 -8 -8 -8 -8 -8 -8 -8 -7 -7 -7 -7 -7 -7 -7 -7 -7 -6 -7 -8 -8
4 5 5 5 3 4 4 4 4 2 1 -0 -1 -3 -4 -5 -6 -7 -7 -8 -8 -8 -8 -8 -8 -8 -9 -8 -8 -8 -9 -8 -7 -7 -7 -7 -7 -7 -6 -7 -7 -7 -8 -8
7 6 5 4 4 5 3 2 2 1 -1 -2 -3 -4 -5 -6 -7 -7 -8 -9 -9 -9 -9 -8 -9 -9 -9 -9 -8 -9 -9 -8 -8 -7 -8 -7 -7 -7 -8 -7 -7 -8 -8 -9
6 6 5 5 4 4 3 2 1 -1 -2 -3 -4 -5 -6 -8 -8 -8 -9 -9 -9 -9 -8 -9 -9 -9 -9 -9 -9 -9 -8 -8 -8 -8 -8 -7 -7 -7 -7 -8 -9 -8 -9 -9
6 5 5 4 3 3 2 1 -1 -3 -3 -5 -5 -6 -7 -8 -9 -9 -9 -9 -9 -9 -9 -9 -9 -10 -9 -10 -9 -9 -9 -9 -9 -8 -8 -8 -8 -7 -8 -8 -8 -9 -10 -10
5 4 4 3 3 2 1 0 -2 -4 -5 -6 -6 -7 -8 -8 -9 -9 -9 -9 -9 -9 -10 -10 -10 -10 -10 -10 -10 -9 -10 -10 -9 -9 -9 -9 -9 -9 -8 -8 -9 -9 -10 -11
3 2 2 2 1 -1 -1 -2 -3 -4 -6 -6 -7 -8 -8 -9 -9 -9 -9 -9 -9 -9 -10 -10 -10 -10 -11 -10 -10 -10 -10 -10 -10 -10 -10 -10 -10 -10 -9 -9 -9 -10 -11 -11
4 3 3 1 -1 -2 -3 -4 -5 -6 -6 -8 -8 -8 -9 -9 -9 -9 -9 -9 -9 -10 -10 -11 -11 -11 -11 -11 -11 -11 -11 -11 -11 -11 -11 -11 -11 -10 -10 -10 -10 -11 -11 -12
1 -0 -0 -1 -2 -3 -4 -5 -6 -7 -8 -8 -9 -9 -9 -9 -9 -9 -9 -10 -10 -11 -11 -11 -11 -11 -11 -11 -11 -11 -11 -12 -12 -12 -12 -11 -11 -11 -11 -11 -11 -12 -13 -13
-3 -3 -3 -4 -4 -4 -6 -7 -8 -8 -9 -9 -9 -9 -9 -9 -9 -9 -10 -10 -11 -11 -11 -11 -11 -11 -11 -11 -11 -12 -12 -12 -12 -12 -13 -12 -12 -12 -12 -12 -12 -13 -13 -14
-4 -4 -5 -5 -7 -6 -6 -7 -8 -9 -9 -9 -9 -9 -9 -8 -8 -9 -10 -10 -11 -11 -11 -11 -12 -12 -12 -12 -12 -12 -13 -13 -13 -13 -13 -13 -13 -13 -13 -13 -13 -14 -15 -15
-6 -7 -8 -8 -8 -8 -8 -8 -8 -9 -9 -9 -9 -9 -9 -9 -10 -10 -10 -10 -11 -11 -11 -11 -12 -12 -12 -12 -12 -13 -13 -13 -13 -13 -14 -14 -14 -14 -14 -14 -14 -15 -15 -16
-7 -8 -8 -8 -8 -8 -9 -9 -9 -9 -9 -9 -9 -9 -9 -9 -10 -10 -10 -11 -11 -11 -11 -12 -12 -12 -12 -13 -13 -13 -13 -14 -14 -14 -14 -14 -15 -15 -15 -15 -15 -15 -16 -16
-8 -8 -8 -8 -8 -9 -10 -9 -9 -9 -9 -9 -9 -9 -9 -10 -10 -10 -10 -10 -11 -11 -11 -12 -12 -12 -13 -13 -13 -13 -14 -14 -14 -14 -14 -15 -15 -15 -15 -15 -15 -16 -16 -16
-7 -8 -8 -9 -9 -9 -8 -8 -9 -9 -9 -9 -9 -9 -9 -10 -9 -10 -10 -11 -11 -11 -11 -12 -12 -12 -12 -13 -13 -13 -14 -14 -14 -14 -15 -15 -15 -15 -15 -15 -16 -16 -16 -16
-8 -8 -8 -8 -7 -7 -7 -8 -8 -8 -9 -9 -9 -9 -9 -10 -10 -10 -10 -11 -11 -11 -11 -12 -12 -12 -13 -13 -13 -13 -14 -14 -14 -15 -15 -15 -16 -16 -16 -16 -16 -16 -17 -17
-7 -7 -7 -7 -7 -6 -7 -7 -7 -7 -7 -8 -9 -9 -9 -10 -10 -10 -10 -11 -11 -11 -11 -12 -12 -13 -13 -13 -13 -13 -14 -14 -14 -15 -15 -16 -16 -16 -16 -17 -17 -17 -17 -17